Wetterdaten: Sonntag, 27.11.2016
Datum Zeit Temp. A. Feuchte A. Luftdruck Regen Wind Richtung Richtung Sonnenschein ET UV Solar Taupunkt Windchill Windben Empfang
27.11.2016 00:00 5,9 C 96 % 1016,0 hPa 0,0 l/m 7,9 km/h (2 Bft) W 260 0 min 0,000 mm 0,0 UV-I 0 W/m 5,3 C 4,6 C 14,5 km/h (3 Bft) 100,00 %
27.11.2016 00:02 5,9 C 96 % 1016,1 hPa 0,0 l/m 7,2 km/h (2 Bft) W-SW 239 0 min 0,000 mm 0,0 UV-I 0 W/m 5,3 C 5,2 C 11,3 km/h (2 Bft) 97,44 %
27.11.2016 00:04 5,9 C 96 % 1016,1 hPa 0,0 l/m 7,6 km/h (2 Bft) W-SW 247 0 min 0,000 mm 0,0 UV-I 0 W/m 5,3 C 4,9 C 12,9 km/h (3 Bft) 100,00 %
27.11.2016 00:06 5,9 C 96 % 1016,0 hPa 0,0 l/m 9,5 km/h (2 Bft) W-SW 242 0 min 0,000 mm 0,0 UV-I 0 W/m 5,3 C 3,4 C 14,5 km/h (3 Bft) 100,00 %
27.11.2016 00:08 5,9 C 96 % 1015,9 hPa 0,0 l/m 9,7 km/h (2 Bft) W-SW 248 0 min 0,000 mm 0,0 UV-I 0 W/m 5,3 C 3,3 C 14,5 km/h (3 Bft) 100,00 %
27.11.2016 00:10 6,0 C 96 % 1016,0 hPa 0,0 l/m 8,1 km/h (2 Bft) W-SW 247 0 min 0,000 mm 0,0 UV-I 0 W/m 5,4 C 4,6 C 12,9 km/h (3 Bft) 100,00 %
27.11.2016 00:12 6,0 C 96 % 1015,9 hPa 0,0 l/m 6,2 km/h (2 Bft) S-SW 203 0 min 0,000 mm 0,0 UV-I 0 W/m 5,4 C 6,0 C 9,7 km/h (2 Bft) 100,00 %
27.11.2016 00:14 5,9 C 96 % 1015,9 hPa 0,0 l/m 7,0 km/h (2 Bft) W 270 0 min 0,000 mm 0,0 UV-I 0 W/m 5,3 C 5,4 C 11,3 km/h (2 Bft) 100,00 %
27.11.2016 00:16 5,9 C 96 % 1015,8 hPa 0,0 l/m 7,2 km/h (2 Bft) SW 228 0 min 0,000 mm 0,0 UV-I 0 W/m 5,3 C 5,2 C 12,9 km/h (3 Bft) 100,00 %
27.11.2016 00:18 5,9 C 96 % 1015,9 hPa 0,0 l/m 7,3 km/h (2 Bft) SW 229 0 min 0,000 mm 0,0 UV-I 0 W/m 5,3 C 5,1 C 11,3 km/h (2 Bft) 95,12 %
27.11.2016 00:20 5,9 C 96 % 1015,9 hPa 0,0 l/m 8,4 km/h (2 Bft) SW 230 0 min 0,000 mm 0,0 UV-I 0 W/m 5,3 C 4,2 C 11,3 km/h (2 Bft) 97,73 %
27.11.2016 00:22 5,9 C 96 % 1015,9 hPa 0,0 l/m 8,5 km/h (2 Bft) SW 234 0 min 0,000 mm 0,0 UV-I 0 W/m 5,3 C 4,2 C 12,9 km/h (3 Bft) 100,00 %
27.11.2016 00:24 5,9 C 97 % 1015,9 hPa 0,0 l/m 8,6 km/h (2 Bft) W-SW 257 0 min 0,000 mm 0,0 UV-I 0 W/m 5,5 C 4,1 C 11,3 km/h (2 Bft) 97,87 %
27.11.2016 00:26 6,0 C 96 % 1015,9 hPa 0,0 l/m 7,3 km/h (2 Bft) SW 236 0 min 0,000 mm 0,0 UV-I 0 W/m 5,4 C 5,2 C 11,3 km/h (2 Bft) 100,00 %
27.11.2016 00:28 6,0 C 97 % 1015,9 hPa 0,0 l/m 8,0 km/h (2 Bft) W-SW 253 0 min 0,000 mm 0,0 UV-I 0 W/m 5,6 C 4,7 C 12,9 km/h (3 Bft) 97,73 %
27.11.2016 00:30 5,9 C 96 % 1015,8 hPa 0,0 l/m 8,2 km/h (2 Bft) W-SW 250 0 min 0,000 mm 0,0 UV-I 0 W/m 5,3 C 4,4 C 14,5 km/h (3 Bft) 96,23 %
27.11.2016 00:32 5,9 C 96 % 1015,8 hPa 0,0 l/m 8,4 km/h (2 Bft) SW 225 0 min 0,000 mm 0,0 UV-I 0 W/m 5,3 C 4,2 C 12,9 km/h (3 Bft) 92,68 %
27.11.2016 00:34 5,9 C 96 % 1015,8 hPa 0,0 l/m 8,2 km/h (2 Bft) SW 223 0 min 0,000 mm 0,0 UV-I 0 W/m 5,3 C 4,4 C 11,3 km/h (2 Bft) 97,73 %
27.11.2016 00:36 5,9 C 96 % 1015,8 hPa 0,0 l/m 8,3 km/h (2 Bft) W-SW 238 0 min 0,000 mm 0,0 UV-I 0 W/m 5,3 C 4,3 C 12,9 km/h (3 Bft) 95,74 %
27.11.2016 00:38 5,9 C 96 % 1015,8 hPa 0,0 l/m 6,4 km/h (2 Bft) W-SW 243 0 min 0,000 mm 0,0 UV-I 0 W/m 5,3 C 5,9 C 9,7 km/h (2 Bft) 97,87 %
27.11.2016 00:40 5,9 C 96 % 1015,7 hPa 0,0 l/m 5,7 km/h (1 Bft) SW 221 0 min 0,000 mm 0,0 UV-I 0 W/m 5,3 C 5,9 C 9,7 km/h (2 Bft) 97,87 %
27.11.2016 00:42 5,9 C 96 % 1015,7 hPa 0,0 l/m 5,4 km/h (1 Bft) W-SW 244 0 min 0,000 mm 0,0 UV-I 0 W/m 5,3 C 5,9 C 8,0 km/h (2 Bft) 97,87 %
27.11.2016 00:44 5,9 C 96 % 1015,7 hPa 0,0 l/m 5,7 km/h (1 Bft) SW 217 0 min 0,000 mm 0,0 UV-I 0 W/m 5,3 C 5,9 C 9,7 km/h (2 Bft) 98,00 %
27.11.2016 00:46 5,9 C 97 % 1015,7 hPa 0,0 l/m 6,5 km/h (2 Bft) SW 229 0 min 0,000 mm 0,0 UV-I 0 W/m 5,5 C 5,8 C 11,3 km/h (2 Bft) 97,92 %
27.11.2016 00:48 5,9 C 97 % 1015,7 hPa 0,0 l/m 5,5 km/h (1 Bft) W-SW 238 0 min 0,000 mm 0,0 UV-I 0 W/m 5,5 C 5,9 C 8,0 km/h (2 Bft) 96,55 %
27.11.2016 00:50 5,9 C 97 % 1015,7 hPa 0,0 l/m 5,9 km/h (2 Bft) W-SW 242 0 min 0,000 mm 0,0 UV-I 0 W/m 5,5 C 5,9 C 11,3 km/h (2 Bft) 95,38 %
27.11.2016 00:52 5,9 C 97 % 1015,7 hPa 0,0 l/m 5,9 km/h (2 Bft) W-SW 237 0 min 0,000 mm 0,0 UV-I 0 W/m 5,5 C 5,9 C 8,0 km/h (2 Bft) 97,37 %
27.11.2016 00:54 5,8 C 97 % 1015,7 hPa 0,0 l/m 8,1 km/h (2 Bft) W-SW 246 0 min 0,000 mm 0,0 UV-I 0 W/m 5,4 C 4,4 C 11,3 km/h (2 Bft) 98,00 %
27.11.2016 00:56 5,8 C 97 % 1015,6 hPa 0,0 l/m 6,6 km/h (2 Bft) SW 224 0 min 0,000 mm 0,0 UV-I 0 W/m 5,4 C 5,7 C 9,7 km/h (2 Bft) 98,11 %
27.11.2016 00:58 5,8 C 97 % 1015,6 hPa 0,0 l/m 8,7 km/h (2 Bft) W-SW 247 0 min 0,000 mm 0,0 UV-I 0 W/m 5,4 C 3,9 C 14,5 km/h (3 Bft) 97,37 %
27.11.2016 01:00 5,8 C 97 % 1015,6 hPa 0,0 l/m 7,0 km/h (2 Bft) SW 233 0 min 0,000 mm 0,0 UV-I 0 W/m 5,4 C 5,3 C 14,5 km/h (3 Bft) 98,21 %
27.11.2016 01:02 5,8 C 97 % 1015,6 hPa 0,0 l/m 7,2 km/h (2 Bft) W-SW 254 0 min 0,000 mm 0,0 UV-I 0 W/m 5,4 C 5,1 C 11,3 km/h (2 Bft) 100,00 %
27.11.2016 01:04 5,8 C 97 % 1015,6 hPa 0,0 l/m 7,8 km/h (2 Bft) SW 220 0 min 0,000 mm 0,0 UV-I 0 W/m 5,4 C 4,6 C 12,9 km/h (3 Bft) 96,55 %
27.11.2016 01:06 5,8 C 97 % 1015,6 hPa 0,0 l/m 7,4 km/h (2 Bft) SW 218 0 min 0,000 mm 0,0 UV-I 0 W/m 5,4 C 4,9 C 9,7 km/h (2 Bft) 100,00 %
27.11.2016 01:08 5,9 C 97 % 1015,5 hPa 0,0 l/m 9,6 km/h (2 Bft) SW 224 0 min 0,000 mm 0,0 UV-I 0 W/m 5,5 C 3,3 C 12,9 km/h (3 Bft) 100,00 %
27.11.2016 01:10 5,8 C 97 % 1015,5 hPa 0,0 l/m 8,9 km/h (2 Bft) SW 219 0 min 0,000 mm 0,0 UV-I 0 W/m 5,4 C 3,7 C 14,5 km/h (3 Bft) 100,00 %
27.11.2016 01:12 5,9 C 97 % 1015,6 hPa 0,0 l/m 8,4 km/h (2 Bft) W-SW 240 0 min 0,000 mm 0,0 UV-I 0 W/m 5,5 C 4,2 C 14,5 km/h (3 Bft) 98,00 %
27.11.2016 01:14 5,9 C 97 % 1015,5 hPa 0,0 l/m 10,5 km/h (2 Bft) W-SW 248 0 min 0,000 mm 0,0 UV-I 0 W/m 5,5 C 2,7 C 17,7 km/h (3 Bft) 100,00 %
27.11.2016 01:16 5,9 C 97 % 1015,5 hPa 0,0 l/m 10,3 km/h (2 Bft) W-SW 241 0 min 0,000 mm 0,0 UV-I 0 W/m 5,5 C 2,9 C 16,1 km/h (3 Bft) 100,00 %
27.11.2016 01:18 5,9 C 97 % 1015,5 hPa 0,0 l/m 7,4 km/h (2 Bft) W 270 0 min 0,000 mm 0,0 UV-I 0 W/m 5,5 C 5,0 C 11,3 km/h (2 Bft) 97,56 %
27.11.2016 01:20 5,9 C 97 % 1015,5 hPa 0,0 l/m 8,2 km/h (2 Bft) W 264 0 min 0,000 mm 0,0 UV-I 0 W/m 5,5 C 4,4 C 12,9 km/h (3 Bft) 96,43 %
27.11.2016 01:22 5,9 C 97 % 1015,5 hPa 0,0 l/m 11,5 km/h (2 Bft) W 268 0 min 0,000 mm 0,0 UV-I 0 W/m 5,5 C 2,1 C 17,7 km/h (3 Bft) 100,00 %
27.11.2016 01:24 5,9 C 97 % 1015,5 hPa 0,0 l/m 9,1 km/h (2 Bft) SW 221 0 min 0,000 mm 0,0 UV-I 0 W/m 5,5 C 3,7 C 12,9 km/h (3 Bft) 100,00 %
27.11.2016 01:26 5,9 C 97 % 1015,4 hPa 0,0 l/m 9,0 km/h (2 Bft) SW 217 0 min 0,000 mm 0,0 UV-I 0 W/m 5,5 C 3,8 C 14,5 km/h (3 Bft) 100,00 %
27.11.2016 01:28 5,9 C 97 % 1015,5 hPa 0,0 l/m 8,4 km/h (2 Bft) W 267 0 min 0,000 mm 0,0 UV-I 0 W/m 5,5 C 4,2 C 12,9 km/h (3 Bft) 97,56 %
27.11.2016 01:30 5,9 C 97 % 1015,4 hPa 0,0 l/m 8,7 km/h (2 Bft) W-SW 246 0 min 0,000 mm 0,0 UV-I 0 W/m 5,5 C 4,0 C 17,7 km/h (3 Bft) 100,00 %
27.11.2016 01:32 5,9 C 97 % 1015,4 hPa 0,0 l/m 9,0 km/h (2 Bft) W-SW 241 0 min 0,000 mm 0,0 UV-I 0 W/m 5,5 C 3,8 C 14,5 km/h (3 Bft) 97,73 %
27.11.2016 01:34 5,9 C 97 % 1015,4 hPa 0,0 l/m 9,8 km/h (2 Bft) SW 223 0 min 0,000 mm 0,0 UV-I 0 W/m 5,5 C 3,2 C 12,9 km/h (3 Bft) 100,00 %
27.11.2016 01:36 5,9 C 97 % 1015,3 hPa 0,0 l/m 7,9 km/h (2 Bft) W-SW 246 0 min 0,000 mm 0,0 UV-I 0 W/m 5,5 C 4,6 C 12,9 km/h (3 Bft) 100,00 %
27.11.2016 01:38 5,9 C 97 % 1015,3 hPa 0,0 l/m 7,5 km/h (2 Bft) W-SW 243 0 min 0,000 mm 0,0 UV-I 0 W/m 5,5 C 5,0 C 11,3 km/h (2 Bft) 100,00 %
27.11.2016 01:40 5,9 C 97 % 1015,3 hPa 0,0 l/m 7,2 km/h (2 Bft) SW 234 0 min 0,000 mm 0,0 UV-I 0 W/m 5,5 C 5,2 C 11,3 km/h (2 Bft) 100,00 %
27.11.2016 01:42 5,9 C 97 % 1015,2 hPa 0,0 l/m 7,2 km/h (2 Bft) SW 234 0 min 0,000 mm 0,0 UV-I 0 W/m 5,5 C 5,2 C 12,9 km/h (3 Bft) 100,00 %
27.11.2016 01:44 5,9 C 97 % 1015,3 hPa 0,0 l/m 6,0 km/h (2 Bft) SW 235 0 min 0,000 mm 0,0 UV-I 0 W/m 5,5 C 5,9 C 8,0 km/h (2 Bft) 97,56 %
27.11.2016 01:46 5,9 C 97 % 1015,3 hPa 0,0 l/m 8,2 km/h (2 Bft) W-SW 256 0 min 0,000 mm 0,0 UV-I 0 W/m 5,5 C 4,4 C 12,9 km/h (3 Bft) 100,00 %
27.11.2016 01:48 5,9 C 97 % 1015,3 hPa 0,0 l/m 8,9 km/h (2 Bft) W 261 0 min 0,000 mm 0,0 UV-I 0 W/m 5,5 C 3,9 C 12,9 km/h (3 Bft) 100,00 %
27.11.2016 01:50 5,9 C 97 % 1015,3 hPa 0,0 l/m 8,4 km/h (2 Bft) SW 233 0 min 0,000 mm 0,0 UV-I 0 W/m 5,5 C 4,2 C 12,9 km/h (3 Bft) 100,00 %
27.11.2016 01:52 5,9 C 97 % 1015,3 hPa 0,0 l/m 8,8 km/h (2 Bft) W-SW 244 0 min 0,000 mm 0,0 UV-I 0 W/m 5,5 C 3,9 C 17,7 km/h (3 Bft) 100,00 %
27.11.2016 01:54 5,9 C 97 % 1015,2 hPa 0,0 l/m 7,8 km/h (2 Bft) SW 236 0 min 0,000 mm 0,0 UV-I 0 W/m 5,5 C 4,7 C 11,3 km/h (2 Bft) 100,00 %
27.11.2016 01:56 5,9 C 97 % 1015,3 hPa 0,0 l/m 7,7 km/h (2 Bft) W-SW 244 0 min 0,000 mm 0,0 UV-I 0 W/m 5,5 C 4,8 C 11,3 km/h (2 Bft) 98,18 %
27.11.2016 01:58 5,9 C 97 % 1015,3 hPa 0,0 l/m 9,4 km/h (2 Bft) W 259 0 min 0,000 mm 0,0 UV-I 0 W/m 5,5 C 3,5 C 12,9 km/h (3 Bft) 100,00 %
27.11.2016 02:00 5,9 C 97 % 1015,3 hPa 0,0 l/m 8,3 km/h (2 Bft) W-SW 255 0 min 0,000 mm 0,0 UV-I 0 W/m 5,5 C 4,3 C 12,9 km/h (3 Bft) 100,00 %
27.11.2016 02:02 5,9 C 97 % 1015,3 hPa 0,0 l/m 8,4 km/h (2 Bft) W-SW 242 0 min 0,000 mm 0,0 UV-I 0 W/m 5,5 C 4,2 C 14,5 km/h (3 Bft) 100,00 %
27.11.2016 02:04 5,9 C 97 % 1015,3 hPa 0,0 l/m 10,5 km/h (2 Bft) W-SW 252 0 min 0,000 mm 0,0 UV-I 0 W/m 5,5 C 2,7 C 14,5 km/h (3 Bft) 100,00 %
27.11.2016 02:06 5,9 C 97 % 1015,3 hPa 0,0 l/m 7,2 km/h (2 Bft) W-SW 242 0 min 0,000 mm 0,0 UV-I 0 W/m 5,5 C 5,2 C 14,5 km/h (3 Bft) 100,00 %
27.11.2016 02:08 5,9 C 97 % 1015,4 hPa 0,0 l/m 8,0 km/h (2 Bft) W 261 0 min 0,000 mm 0,0 UV-I 0 W/m 5,5 C 4,5 C 11,3 km/h (2 Bft) 100,00 %
27.11.2016 02:10 5,9 C 97 % 1015,4 hPa 0,0 l/m 8,0 km/h (2 Bft) W 259 0 min 0,000 mm 0,0 UV-I 0 W/m 5,5 C 4,5 C 11,3 km/h (2 Bft) 100,00 %
27.11.2016 02:12 5,9 C 97 % 1015,3 hPa 0,0 l/m 8,2 km/h (2 Bft) W 263 0 min 0,000 mm 0,0 UV-I 0 W/m 5,5 C 4,4 C 11,3 km/h (2 Bft) 100,00 %
27.11.2016 02:14 5,9 C 97 % 1015,3 hPa 0,0 l/m 6,2 km/h (2 Bft) W 273 0 min 0,000 mm 0,0 UV-I 0 W/m 5,5 C 5,9 C 11,3 km/h (2 Bft) 100,00 %
27.11.2016 02:16 5,9 C 97 % 1015,3 hPa 0,0 l/m 6,8 km/h (2 Bft) W 261 0 min 0,000 mm 0,0 UV-I 0 W/m 5,5 C 5,6 C 11,3 km/h (2 Bft) 100,00 %
27.11.2016 02:18 5,9 C 97 % 1015,3 hPa 0,0 l/m 4,7 km/h (1 Bft) W-NW 284 0 min 0,000 mm 0,0 UV-I 0 W/m 5,5 C 5,9 C 6,4 km/h (2 Bft) 100,00 %
27.11.2016 02:20 5,9 C 97 % 1015,3 hPa 0,0 l/m 5,3 km/h (1 Bft) W-NW 284 0 min 0,000 mm 0,0 UV-I 0 W/m 5,5 C 5,9 C 9,7 km/h (2 Bft) 100,00 %
27.11.2016 02:22 5,9 C 97 % 1015,3 hPa 0,0 l/m 4,8 km/h (1 Bft) W 274 0 min 0,000 mm 0,0 UV-I 0 W/m 5,5 C 5,9 C 11,3 km/h (2 Bft) 100,00 %
27.11.2016 02:24 5,9 C 97 % 1015,3 hPa 0,0 l/m 4,0 km/h (1 Bft) NW 304 0 min 0,000 mm 0,0 UV-I 0 W/m 5,5 C 5,9 C 8,0 km/h (2 Bft) 97,87 %
27.11.2016 02:26 5,9 C 97 % 1015,3 hPa 0,0 l/m 4,2 km/h (1 Bft) W 273 0 min 0,000 mm 0,0 UV-I 0 W/m 5,5 C 5,9 C 9,7 km/h (2 Bft) 100,00 %
27.11.2016 02:28 5,9 C 97 % 1015,3 hPa 0,0 l/m 4,1 km/h (1 Bft) W 275 0 min 0,000 mm 0,0 UV-I 0 W/m 5,5 C 5,9 C 6,4 km/h (2 Bft) 100,00 %
27.11.2016 02:30 5,9 C 97 % 1015,3 hPa 0,0 l/m 4,4 km/h (1 Bft) W 272 0 min 0,000 mm 0,0 UV-I 0 W/m 5,5 C 5,9 C 9,7 km/h (2 Bft) 100,00 %
27.11.2016 02:32 5,9 C 97 % 1015,2 hPa 0,0 l/m 3,8 km/h (1 Bft) W 273 0 min 0,000 mm 0,0 UV-I 0 W/m 5,5 C 5,9 C 6,4 km/h (2 Bft) 98,21 %
27.11.2016 02:34 5,9 C 97 % 1015,3 hPa 0,0 l/m 3,3 km/h (1 Bft) W 278 0 min 0,000 mm 0,0 UV-I 0 W/m 5,5 C 5,9 C 4,8 km/h (1 Bft) 97,37 %
27.11.2016 02:36 5,9 C 97 % 1015,2 hPa 0,0 l/m 1,6 km/h (1 Bft) W 278 0 min 0,000 mm 0,0 UV-I 0 W/m 5,5 C 5,9 C 3,2 km/h (1 Bft) 96,00 %
27.11.2016 02:38 5,8 C 97 % 1015,2 hPa 0,0 l/m 1,9 km/h (1 Bft) W 278 0 min 0,000 mm 0,0 UV-I 0 W/m 5,4 C 5,8 C 4,8 km/h (1 Bft) 98,00 %
27.11.2016 02:40 5,8 C 97 % 1015,2 hPa 0,0 l/m 3,7 km/h (1 Bft) W-NW 284 0 min 0,000 mm 0,0 UV-I 0 W/m 5,4 C 5,8 C 6,4 km/h (2 Bft) 97,87 %
27.11.2016 02:42 5,8 C 97 % 1015,3 hPa 0,0 l/m 4,7 km/h (1 Bft) W 274 0 min 0,000 mm 0,0 UV-I 0 W/m 5,4 C 5,8 C 6,4 km/h (2 Bft) 97,62 %
27.11.2016 02:44 5,8 C 97 % 1015,2 hPa 0,0 l/m 4,5 km/h (1 Bft) W 263 0 min 0,000 mm 0,0 UV-I 0 W/m 5,4 C 5,8 C 6,4 km/h (2 Bft) 98,00 %
27.11.2016 02:46 5,8 C 97 % 1015,3 hPa 0,0 l/m 4,5 km/h (1 Bft) W-SW 254 0 min 0,000 mm 0,0 UV-I 0 W/m 5,4 C 5,8 C 8,0 km/h (2 Bft) 97,56 %
27.11.2016 02:48 5,8 C 97 % 1015,2 hPa 0,0 l/m 4,6 km/h (1 Bft) W 259 0 min 0,000 mm 0,0 UV-I 0 W/m 5,4 C 5,8 C 8,0 km/h (2 Bft) 98,21 %
27.11.2016 02:50 5,8 C 97 % 1015,2 hPa 0,0 l/m 5,1 km/h (1 Bft) W-SW 256 0 min 0,000 mm 0,0 UV-I 0 W/m 5,4 C 5,8 C 8,0 km/h (2 Bft) 95,74 %
27.11.2016 02:52 5,8 C 97 % 1015,2 hPa 0,0 l/m 5,2 km/h (1 Bft) W 259 0 min 0,000 mm 0,0 UV-I 0 W/m 5,4 C 5,8 C 6,4 km/h (2 Bft) 97,87 %
27.11.2016 02:54 5,8 C 97 % 1015,2 hPa 0,0 l/m 4,4 km/h (1 Bft) W 269 0 min 0,000 mm 0,0 UV-I 0 W/m 5,4 C 5,8 C 9,7 km/h (2 Bft) 97,37 %
27.11.2016 02:56 5,8 C 97 % 1015,2 hPa 0,0 l/m 4,7 km/h (1 Bft) W 273 0 min 0,000 mm 0,0 UV-I 0 W/m 5,4 C 5,8 C 8,0 km/h (2 Bft) 97,87 %
27.11.2016 02:58 5,8 C 97 % 1015,2 hPa 0,0 l/m 4,7 km/h (1 Bft) W 261 0 min 0,000 mm 0,0 UV-I 0 W/m 5,4 C 5,8 C 6,4 km/h (2 Bft) 96,43 %
27.11.2016 03:00 5,8 C 97 % 1015,2 hPa 0,0 l/m 5,6 km/h (1 Bft) W-SW 250 0 min 0,000 mm 0,0 UV-I 0 W/m 5,4 C 5,8 C 9,7 km/h (2 Bft) 97,14 %
27.11.2016 03:02 5,8 C 97 % 1015,2 hPa 0,0 l/m 5,9 km/h (2 Bft) W 271 0 min 0,000 mm 0,0 UV-I 0 W/m 5,4 C 5,8 C 9,7 km/h (2 Bft) 98,00 %
27.11.2016 03:04 5,8 C 98 % 1015,2 hPa 0,0 l/m 4,0 km/h (1 Bft) W 281 0 min 0,000 mm 0,0 UV-I 0 W/m 5,5 C 5,8 C 6,4 km/h (2 Bft) 95,74 %
27.11.2016 03:06 5,8 C 98 % 1015,2 hPa 0,0 l/m 5,3 km/h (1 Bft) W-SW 238 0 min 0,000 mm 0,0 UV-I 0 W/m 5,5 C 5,8 C 9,7 km/h (2 Bft) 96,43 %
27.11.2016 03:08 5,8 C 98 % 1015,2 hPa 0,0 l/m 6,3 km/h (2 Bft) W-SW 248 0 min 0,000 mm 0,0 UV-I 0 W/m 5,5 C 5,8 C 9,7 km/h (2 Bft) 100,00 %
27.11.2016 03:10 5,8 C 98 % 1015,2 hPa 0,0 l/m 7,1 km/h (2 Bft) W-SW 252 0 min 0,000 mm 0,0 UV-I 0 W/m 5,5 C 5,2 C 11,3 km/h (2 Bft) 98,11 %
27.11.2016 03:12 5,8 C 98 % 1015,2 hPa 0,0 l/m 7,7 km/h (2 Bft) W-SW 257 0 min 0,000 mm 0,0 UV-I 0 W/m 5,5 C 4,7 C 11,3 km/h (2 Bft) 100,00 %
27.11.2016 03:14 5,8 C 98 % 1015,3 hPa 0,0 l/m 5,1 km/h (1 Bft) W-SW 252 0 min 0,000 mm 0,0 UV-I 0 W/m 5,5 C 5,8 C 8,0 km/h (2 Bft) 100,00 %
27.11.2016 03:16 5,8 C 98 % 1015,3 hPa 0,0 l/m 6,1 km/h (2 Bft) W 262 0 min 0,000 mm 0,0 UV-I 0 W/m 5,5 C 5,8 C 11,3 km/h (2 Bft) 100,00 %
27.11.2016 03:18 5,8 C 98 % 1015,2 hPa 0,0 l/m 4,9 km/h (1 Bft) W-SW 243 0 min 0,000 mm 0,0 UV-I 0 W/m 5,5 C 5,8 C 9,7 km/h (2 Bft) 98,00 %
27.11.2016 03:20 5,8 C 98 % 1015,3 hPa 0,0 l/m 6,5 km/h (2 Bft) W-SW 251 0 min 0,000 mm 0,0 UV-I 0 W/m 5,5 C 5,7 C 11,3 km/h (2 Bft) 100,00 %
27.11.2016 03:22 5,8 C 98 % 1015,2 hPa 0,0 l/m 6,4 km/h (2 Bft) W-SW 248 0 min 0,000 mm 0,0 UV-I 0 W/m 5,5 C 5,8 C 11,3 km/h (2 Bft) 100,00 %
27.11.2016 03:24 5,8 C 98 % 1015,1 hPa 0,0 l/m 6,5 km/h (2 Bft) W-SW 243 0 min 0,000 mm 0,0 UV-I 0 W/m 5,5 C 5,7 C 11,3 km/h (2 Bft) 100,00 %
27.11.2016 03:26 5,7 C 98 % 1015,1 hPa 0,0 l/m 4,0 km/h (1 Bft) W-SW 251 0 min 0,000 mm 0,0 UV-I 0 W/m 5,4 C 5,7 C 4,8 km/h (1 Bft) 100,00 %
27.11.2016 03:28 5,8 C 98 % 1015,1 hPa 0,0 l/m 4,2 km/h (1 Bft) W-SW 251 0 min 0,000 mm 0,0 UV-I 0 W/m 5,5 C 5,8 C 8,0 km/h (2 Bft) 100,00 %
27.11.2016 03:30 5,8 C 98 % 1015,1 hPa 0,0 l/m 6,5 km/h (2 Bft) W 261 0 min 0,000 mm 0,0 UV-I 0 W/m 5,5 C 5,7 C 11,3 km/h (2 Bft) 100,00 %
27.11.2016 03:32 5,7 C 98 % 1015,1 hPa 0,0 l/m 7,7 km/h (2 Bft) W 262 0 min 0,000 mm 0,0 UV-I 0 W/m 5,4 C 4,6 C 11,3 km/h (2 Bft) 100,00 %
27.11.2016 03:34 5,7 C 98 % 1015,1 hPa 0,0 l/m 7,4 km/h (2 Bft) SW 214 0 min 0,000 mm 0,0 UV-I 0 W/m 5,4 C 4,8 C 11,3 km/h (2 Bft) 100,00 %
27.11.2016 03:36 5,7 C 98 % 1015,0 hPa 0,0 l/m 5,5 km/h (1 Bft) W 264 0 min 0,000 mm 0,0 UV-I 0 W/m 5,4 C 5,7 C 9,7 km/h (2 Bft) 100,00 %
27.11.2016 03:38 5,7 C 98 % 1015,1 hPa 0,0 l/m 5,2 km/h (1 Bft) W-SW 245 0 min 0,000 mm 0,0 UV-I 0 W/m 5,4 C 5,7 C 8,0 km/h (2 Bft) 100,00 %
27.11.2016 03:40 5,7 C 98 % 1015,1 hPa 0,0 l/m 7,7 km/h (2 Bft) SW 229 0 min 0,000 mm 0,0 UV-I 0 W/m 5,4 C 4,6 C 11,3 km/h (2 Bft) 100,00 %
27.11.2016 03:42 5,7 C 98 % 1015,1 hPa 0,0 l/m 6,2 km/h (2 Bft) S-SW 211 0 min 0,000 mm 0,0 UV-I 0 W/m 5,4 C 5,7 C 9,7 km/h (2 Bft) 97,56 %
27.11.2016 03:44 5,7 C 98 % 1015,1 hPa 0,0 l/m 8,3 km/h (2 Bft) SW 229 0 min 0,000 mm 0,0 UV-I 0 W/m 5,4 C 4,1 C 12,9 km/h (3 Bft) 100,00 %
27.11.2016 03:46 5,7 C 98 % 1015,0 hPa 0,0 l/m 7,9 km/h (2 Bft) W-SW 244 0 min 0,000 mm 0,0 UV-I 0 W/m 5,4 C 4,4 C 11,3 km/h (2 Bft) 100,00 %
27.11.2016 03:48 5,7 C 98 % 1015,0 hPa 0,0 l/m 8,5 km/h (2 Bft) SW 234 0 min 0,000 mm 0,0 UV-I 0 W/m 5,4 C 3,9 C 12,9 km/h (3 Bft) 97,87 %
27.11.2016 03:50 5,7 C 98 % 1015,0 hPa 0,0 l/m 8,2 km/h (2 Bft) W-SW 243 0 min 0,000 mm 0,0 UV-I 0 W/m 5,4 C 4,2 C 16,1 km/h (3 Bft) 100,00 %
27.11.2016 03:52 5,7 C 98 % 1015,0 hPa 0,0 l/m 8,9 km/h (2 Bft) W 274 0 min 0,000 mm 0,0 UV-I 0 W/m 5,4 C 3,6 C 14,5 km/h (3 Bft) 100,00 %
27.11.2016 03:54 5,7 C 98 % 1015,0 hPa 0,0 l/m 7,4 km/h (2 Bft) W-SW 250 0 min 0,000 mm 0,0 UV-I 0 W/m 5,4 C 4,8 C 12,9 km/h (3 Bft) 97,37 %
27.11.2016 03:56 5,7 C 98 % 1015,0 hPa 0,0 l/m 8,7 km/h (2 Bft) SW 236 0 min 0,000 mm 0,0 UV-I 0 W/m 5,4 C 3,8 C 12,9 km/h (3 Bft) 100,00 %
27.11.2016 03:58 5,7 C 98 % 1015,0 hPa 0,0 l/m 7,5 km/h (2 Bft) W-NW 286 0 min 0,000 mm 0,0 UV-I 0 W/m 5,4 C 4,8 C 12,9 km/h (3 Bft) 100,00 %
27.11.2016 04:00 5,7 C 98 % 1015,0 hPa 0,0 l/m 10,4 km/h (2 Bft) W 264 0 min 0,000 mm 0,0 UV-I 0 W/m 5,4 C 2,6 C 16,1 km/h (3 Bft) 100,00 %
27.11.2016 04:02 5,7 C 98 % 1015,0 hPa 0,0 l/m 8,1 km/h (2 Bft) SW 229 0 min 0,000 mm 0,0 UV-I 0 W/m 5,4 C 4,3 C 12,9 km/h (3 Bft) 100,00 %
27.11.2016 04:04 5,7 C 98 % 1015,0 hPa 0,0 l/m 8,3 km/h (2 Bft) W 259 0 min 0,000 mm 0,0 UV-I 0 W/m 5,4 C 4,1 C 14,5 km/h (3 Bft) 100,00 %
27.11.2016 04:06 5,7 C 98 % 1015,0 hPa 0,0 l/m 8,2 km/h (2 Bft) W 264 0 min 0,000 mm 0,0 UV-I 0 W/m 5,4 C 4,2 C 11,3 km/h (2 Bft) 100,00 %
27.11.2016 04:08 5,7 C 98 % 1015,0 hPa 0,0 l/m 8,7 km/h (2 Bft) W-SW 247 0 min 0,000 mm 0,0 UV-I 0 W/m 5,4 C 3,8 C 12,9 km/h (3 Bft) 100,00 %
27.11.2016 04:10 5,7 C 98 % 1015,0 hPa 0,0 l/m 9,1 km/h (2 Bft) SW 232 0 min 0,000 mm 0,0 UV-I 0 W/m 5,4 C 3,5 C 14,5 km/h (3 Bft) 97,56 %
27.11.2016 04:12 5,7 C 98 % 1015,0 hPa 0,0 l/m 10,7 km/h (2 Bft) SW 225 0 min 0,000 mm 0,0 UV-I 0 W/m 5,4 C 2,4 C 16,1 km/h (3 Bft) 98,11 %
27.11.2016 04:14 5,7 C 98 % 1015,0 hPa 0,0 l/m 10,9 km/h (2 Bft) W-SW 242 0 min 0,000 mm 0,0 UV-I 0 W/m 5,4 C 2,2 C 16,1 km/h (3 Bft) 100,00 %
27.11.2016 04:16 5,7 C 98 % 1015,0 hPa 0,0 l/m 10,6 km/h (2 Bft) W-SW 248 0 min 0,000 mm 0,0 UV-I 0 W/m 5,4 C 2,4 C 16,1 km/h (3 Bft) 100,00 %
27.11.2016 04:18 5,7 C 98 % 1015,0 hPa 0,0 l/m 8,8 km/h (2 Bft) SW 235 0 min 0,000 mm 0,0 UV-I 0 W/m 5,4 C 3,7 C 12,9 km/h (3 Bft) 100,00 %
27.11.2016 04:20 5,7 C 98 % 1015,0 hPa 0,0 l/m 8,8 km/h (2 Bft) W-SW 257 0 min 0,000 mm 0,0 UV-I 0 W/m 5,4 C 3,7 C 11,3 km/h (2 Bft) 100,00 %
27.11.2016 04:22 5,7 C 98 % 1015,0 hPa 0,0 l/m 8,4 km/h (2 Bft) W-SW 252 0 min 0,000 mm 0,0 UV-I 0 W/m 5,4 C 4,0 C 12,9 km/h (3 Bft) 100,00 %
27.11.2016 04:24 5,7 C 98 % 1015,0 hPa 0,0 l/m 8,5 km/h (2 Bft) W-SW 244 0 min 0,000 mm 0,0 UV-I 0 W/m 5,4 C 3,9 C 17,7 km/h (3 Bft) 97,37 %
27.11.2016 04:26 5,7 C 98 % 1015,0 hPa 0,0 l/m 8,3 km/h (2 Bft) W 261 0 min 0,000 mm 0,0 UV-I 0 W/m 5,4 C 4,1 C 12,9 km/h (3 Bft) 100,00 %
27.11.2016 04:28 5,8 C 97 % 1015,0 hPa 0,0 l/m 8,9 km/h (2 Bft) W-SW 251 0 min 0,000 mm 0,0 UV-I 0 W/m 5,4 C 3,7 C 12,9 km/h (3 Bft) 100,00 %
27.11.2016 04:30 5,8 C 97 % 1014,9 hPa 0,0 l/m 9,7 km/h (2 Bft) W-SW 244 0 min 0,000 mm 0,0 UV-I 0 W/m 5,4 C 3,2 C 12,9 km/h (3 Bft) 100,00 %
27.11.2016 04:32 5,8 C 97 % 1015,0 hPa 0,0 l/m 10,1 km/h (2 Bft) W-SW 250 0 min 0,000 mm 0,0 UV-I 0 W/m 5,4 C 2,9 C 14,5 km/h (3 Bft) 97,37 %
27.11.2016 04:34 5,8 C 97 % 1015,0 hPa 0,0 l/m 11,2 km/h (2 Bft) W-SW 240 0 min 0,000 mm 0,0 UV-I 0 W/m 5,4 C 2,2 C 17,7 km/h (3 Bft) 98,00 %
27.11.2016 04:36 5,8 C 97 % 1015,0 hPa 0,0 l/m 11,2 km/h (2 Bft) W-SW 252 0 min 0,000 mm 0,0 UV-I 0 W/m 5,4 C 2,2 C 17,7 km/h (3 Bft) 100,00 %
27.11.2016 04:38 5,8 C 97 % 1015,0 hPa 0,0 l/m 9,5 km/h (2 Bft) W 266 0 min 0,000 mm 0,0 UV-I 0 W/m 5,4 C 3,3 C 12,9 km/h (3 Bft) 98,11 %
27.11.2016 04:40 5,8 C 97 % 1015,0 hPa 0,0 l/m 11,4 km/h (2 Bft) W-SW 237 0 min 0,000 mm 0,0 UV-I 0 W/m 5,4 C 2,0 C 17,7 km/h (3 Bft) 100,00 %
27.11.2016 04:42 5,8 C 97 % 1015,0 hPa 0,0 l/m 10,7 km/h (2 Bft) W 268 0 min 0,000 mm 0,0 UV-I 0 W/m 5,4 C 2,5 C 16,1 km/h (3 Bft) 96,61 %
27.11.2016 04:44 5,8 C 97 % 1015,0 hPa 0,0 l/m 11,1 km/h (2 Bft) W-SW 252 0 min 0,000 mm 0,0 UV-I 0 W/m 5,4 C 2,2 C 19,3 km/h (3 Bft) 98,11 %
27.11.2016 04:46 5,8 C 96 % 1014,9 hPa 0,0 l/m 11,0 km/h (2 Bft) W-SW 250 0 min 0,000 mm 0,0 UV-I 0 W/m 5,2 C 2,3 C 16,1 km/h (3 Bft) 98,00 %
27.11.2016 04:48 5,8 C 96 % 1014,9 hPa 0,0 l/m 10,4 km/h (2 Bft) W-SW 245 0 min 0,000 mm 0,0 UV-I 0 W/m 5,2 C 2,7 C 19,3 km/h (3 Bft) 97,14 %
27.11.2016 04:50 5,8 C 96 % 1014,9 hPa 0,0 l/m 12,0 km/h (2 Bft) W-SW 245 0 min 0,000 mm 0,0 UV-I 0 W/m 5,2 C 1,7 C 17,7 km/h (3 Bft) 98,00 %
27.11.2016 04:52 5,8 C 96 % 1014,9 hPa 0,0 l/m 8,0 km/h (2 Bft) W 266 0 min 0,000 mm 0,0 UV-I 0 W/m 5,2 C 4,4 C 11,3 km/h (2 Bft) 94,00 %
27.11.2016 04:54 5,8 C 96 % 1015,0 hPa 0,0 l/m 8,4 km/h (2 Bft) W-SW 239 0 min 0,000 mm 0,0 UV-I 0 W/m 5,2 C 4,1 C 12,9 km/h (3 Bft) 97,73 %
27.11.2016 04:56 5,8 C 96 % 1014,9 hPa 0,0 l/m 11,2 km/h (2 Bft) W 267 0 min 0,000 mm 0,0 UV-I 0 W/m 5,2 C 2,2 C 16,1 km/h (3 Bft) 95,12 %
27.11.2016 04:58 5,8 C 96 % 1014,9 hPa 0,0 l/m 10,5 km/h (2 Bft) W-SW 249 0 min 0,000 mm 0,0 UV-I 0 W/m 5,2 C 2,6 C 14,5 km/h (3 Bft) 98,11 %
27.11.2016 05:00 5,9 C 96 % 1014,9 hPa 0,0 l/m 9,4 km/h (2 Bft) W 273 0 min 0,000 mm 0,0 UV-I 0 W/m 5,3 C 3,5 C 14,5 km/h (3 Bft) 98,11 %
27.11.2016 05:02 5,9 C 95 % 1014,9 hPa 0,0 l/m 8,5 km/h (2 Bft) W-SW 252 0 min 0,000 mm 0,0 UV-I 0 W/m 5,2 C 4,2 C 14,5 km/h (3 Bft) 97,37 %
27.11.2016 05:04 5,9 C 95 % 1014,9 hPa 0,0 l/m 8,3 km/h (2 Bft) W-SW 252 0 min 0,000 mm 0,0 UV-I 0 W/m 5,2 C 4,3 C 14,5 km/h (3 Bft) 97,87 %
27.11.2016 05:06 5,9 C 95 % 1014,9 hPa 0,0 l/m 8,2 km/h (2 Bft) W 259 0 min 0,000 mm 0,0 UV-I 0 W/m 5,2 C 4,4 C 14,5 km/h (3 Bft) 97,73 %
27.11.2016 05:08 5,9 C 95 % 1014,8 hPa 0,0 l/m 11,9 km/h (2 Bft) W 262 0 min 0,000 mm 0,0 UV-I 0 W/m 5,2 C 1,9 C 20,9 km/h (4 Bft) 96,43 %
27.11.2016 05:10 5,9 C 95 % 1014,8 hPa 0,0 l/m 16,0 km/h (3 Bft) W-SW 247 0 min 0,000 mm 0,0 UV-I 0 W/m 5,2 C -0,3 C 25,7 km/h (4 Bft) 95,45 %
27.11.2016 05:12 5,9 C 95 % 1014,9 hPa 0,0 l/m 12,4 km/h (3 Bft) W-SW 251 0 min 0,000 mm 0,0 UV-I 0 W/m 5,2 C 1,6 C 19,3 km/h (3 Bft) 96,23 %
27.11.2016 05:14 5,9 C 95 % 1014,9 hPa 0,0 l/m 12,7 km/h (3 Bft) W 263 0 min 0,000 mm 0,0 UV-I 0 W/m 5,2 C 1,4 C 17,7 km/h (3 Bft) 94,74 %
27.11.2016 05:16 5,8 C 95 % 1014,9 hPa 0,0 l/m 8,9 km/h (2 Bft) W 271 0 min 0,000 mm 0,0 UV-I 0 W/m 5,1 C 3,7 C 12,9 km/h (3 Bft) 100,00 %
27.11.2016 05:18 5,9 C 95 % 1014,9 hPa 0,0 l/m 8,2 km/h (2 Bft) W-SW 247 0 min 0,000 mm 0,0 UV-I 0 W/m 5,2 C 4,4 C 12,9 km/h (3 Bft) 100,00 %
27.11.2016 05:20 5,8 C 95 % 1014,8 hPa 0,0 l/m 8,2 km/h (2 Bft) W-SW 243 0 min 0,000 mm 0,0 UV-I 0 W/m 5,1 C 4,3 C 16,1 km/h (3 Bft) 100,00 %
27.11.2016 05:22 5,8 C 95 % 1014,8 hPa 0,0 l/m 9,1 km/h (2 Bft) W 263 0 min 0,000 mm 0,0 UV-I 0 W/m 5,1 C 3,6 C 14,5 km/h (3 Bft) 100,00 %
27.11.2016 05:24 5,8 C 95 % 1014,8 hPa 0,0 l/m 6,6 km/h (2 Bft) W-SW 253 0 min 0,000 mm 0,0 UV-I 0 W/m 5,1 C 5,7 C 11,3 km/h (2 Bft) 98,00 %
27.11.2016 05:26 5,8 C 95 % 1014,8 hPa 0,0 l/m 13,1 km/h (3 Bft) W-SW 254 0 min 0,000 mm 0,0 UV-I 0 W/m 5,1 C 1,0 C 19,3 km/h (3 Bft) 100,00 %
27.11.2016 05:28 5,8 C 94 % 1014,8 hPa 0,0 l/m 9,7 km/h (2 Bft) W 267 0 min 0,000 mm 0,0 UV-I 0 W/m 4,9 C 3,2 C 14,5 km/h (3 Bft) 97,37 %
27.11.2016 05:30 5,8 C 94 % 1014,8 hPa 0,0 l/m 7,8 km/h (2 Bft) W-SW 248 0 min 0,000 mm 0,0 UV-I 0 W/m 4,9 C 4,6 C 11,3 km/h (2 Bft) 100,00 %
27.11.2016 05:32 5,8 C 94 % 1014,8 hPa 0,0 l/m 7,8 km/h (2 Bft) W-SW 256 0 min 0,000 mm 0,0 UV-I 0 W/m 4,9 C 4,6 C 12,9 km/h (3 Bft) 100,00 %
27.11.2016 05:34 5,8 C 94 % 1014,8 hPa 0,0 l/m 11,0 km/h (2 Bft) W 259 0 min 0,000 mm 0,0 UV-I 0 W/m 4,9 C 2,3 C 16,1 km/h (3 Bft) 97,37 %
27.11.2016 05:36 5,8 C 94 % 1014,8 hPa 0,0 l/m 9,8 km/h (2 Bft) W-SW 246 0 min 0,000 mm 0,0 UV-I 0 W/m 4,9 C 3,1 C 16,1 km/h (3 Bft) 100,00 %
27.11.2016 05:38 5,8 C 94 % 1014,9 hPa 0,0 l/m 10,0 km/h (2 Bft) W-SW 244 0 min 0,000 mm 0,0 UV-I 0 W/m 4,9 C 3,0 C 19,3 km/h (3 Bft) 100,00 %
27.11.2016 05:40 5,8 C 94 % 1014,9 hPa 0,0 l/m 8,9 km/h (2 Bft) W-SW 238 0 min 0,000 mm 0,0 UV-I 0 W/m 4,9 C 3,7 C 12,9 km/h (3 Bft) 98,31 %
27.11.2016 05:42 5,8 C 94 % 1014,9 hPa 0,0 l/m 9,5 km/h (2 Bft) W 267 0 min 0,000 mm 0,0 UV-I 0 W/m 4,9 C 3,3 C 12,9 km/h (3 Bft) 100,00 %
27.11.2016 05:44 5,8 C 94 % 1014,9 hPa 0,0 l/m 14,1 km/h (3 Bft) W 263 0 min 0,000 mm 0,0 UV-I 0 W/m 4,9 C 0,5 C 17,7 km/h (3 Bft) 100,00 %
27.11.2016 05:46 5,8 C 94 % 1014,9 hPa 0,0 l/m 9,9 km/h (2 Bft) W-SW 242 0 min 0,000 mm 0,0 UV-I 0 W/m 4,9 C 3,0 C 17,7 km/h (3 Bft) 100,00 %
27.11.2016 05:48 5,8 C 94 % 1014,9 hPa 0,0 l/m 12,0 km/h (2 Bft) W-SW 255 0 min 0,000 mm 0,0 UV-I 0 W/m 4,9 C 1,7 C 17,7 km/h (3 Bft) 97,87 %
27.11.2016 05:50 5,8 C 94 % 1014,9 hPa 0,0 l/m 8,9 km/h (2 Bft) W-SW 253 0 min 0,000 mm 0,0 UV-I 0 W/m 4,9 C 3,7 C 14,5 km/h (3 Bft) 100,00 %
27.11.2016 05:52 5,8 C 94 % 1014,9 hPa 0,0 l/m 9,7 km/h (2 Bft) W-SW 242 0 min 0,000 mm 0,0 UV-I 0 W/m 4,9 C 3,2 C 14,5 km/h (3 Bft) 100,00 %
27.11.2016 05:54 5,8 C 94 % 1014,9 hPa 0,0 l/m 9,5 km/h (2 Bft) W-SW 245 0 min 0,000 mm 0,0 UV-I 0 W/m 4,9 C 3,3 C 14,5 km/h (3 Bft) 100,00 %
27.11.2016 05:56 5,8 C 94 % 1014,9 hPa 0,0 l/m 11,4 km/h (2 Bft) W-SW 254 0 min 0,000 mm 0,0 UV-I 0 W/m 4,9 C 2,0 C 19,3 km/h (3 Bft) 100,00 %
27.11.2016 05:58 5,8 C 94 % 1014,9 hPa 0,0 l/m 7,1 km/h (2 Bft) W-SW 255 0 min 0,000 mm 0,0 UV-I 0 W/m 4,9 C 5,2 C 11,3 km/h (2 Bft) 97,62 %
27.11.2016 06:00 5,8 C 94 % 1014,9 hPa 0,0 l/m 7,0 km/h (2 Bft) W-SW 252 0 min 0,000 mm 0,0 UV-I 0 W/m 4,9 C 5,3 C 12,9 km/h (3 Bft) 100,00 %
27.11.2016 06:02 5,8 C 94 % 1014,9 hPa 0,0 l/m 6,9 km/h (2 Bft) SW 233 0 min 0,000 mm 0,0 UV-I 0 W/m 4,9 C 5,4 C 11,3 km/h (2 Bft) 100,00 %
27.11.2016 06:04 5,8 C 94 % 1014,9 hPa 0,0 l/m 7,7 km/h (2 Bft) W-SW 252 0 min 0,000 mm 0,0 UV-I 0 W/m 4,9 C 4,7 C 12,9 km/h (3 Bft) 97,87 %
27.11.2016 06:06 5,8 C 94 % 1014,9 hPa 0,0 l/m 7,2 km/h (2 Bft) SW 231 0 min 0,000 mm 0,0 UV-I 0 W/m 4,9 C 5,1 C 12,9 km/h (3 Bft) 100,00 %
27.11.2016 06:08 5,8 C 94 % 1014,9 hPa 0,0 l/m 7,0 km/h (2 Bft) W-SW 238 0 min 0,000 mm 0,0 UV-I 0 W/m 4,9 C 5,3 C 12,9 km/h (3 Bft) 100,00 %
27.11.2016 06:10 5,8 C 94 % 1014,9 hPa 0,0 l/m 10,9 km/h (2 Bft) W-SW 242 0 min 0,000 mm 0,0 UV-I 0 W/m 4,9 C 2,4 C 16,1 km/h (3 Bft) 100,00 %
27.11.2016 06:12 5,8 C 94 % 1014,8 hPa 0,0 l/m 7,5 km/h (2 Bft) W-SW 257 0 min 0,000 mm 0,0 UV-I 0 W/m 4,9 C 4,9 C 11,3 km/h (2 Bft) 100,00 %
27.11.2016 06:14 5,8 C 94 % 1014,9 hPa 0,0 l/m 8,1 km/h (2 Bft) W-SW 240 0 min 0,000 mm 0,0 UV-I 0 W/m 4,9 C 4,4 C 11,3 km/h (2 Bft) 100,00 %
27.11.2016 06:16 5,8 C 95 % 1014,9 hPa 0,0 l/m 8,8 km/h (2 Bft) W-SW 258 0 min 0,000 mm 0,0 UV-I 0 W/m 5,1 C 3,8 C 16,1 km/h (3 Bft) 100,00 %
27.11.2016 06:18 5,8 C 94 % 1014,9 hPa 0,0 l/m 8,6 km/h (2 Bft) W-SW 250 0 min 0,000 mm 0,0 UV-I 0 W/m 4,9 C 4,0 C 16,1 km/h (3 Bft) 100,00 %
27.11.2016 06:20 5,8 C 95 % 1014,9 hPa 0,0 l/m 8,2 km/h (2 Bft) W 269 0 min 0,000 mm 0,0 UV-I 0 W/m 5,1 C 4,3 C 12,9 km/h (3 Bft) 100,00 %
27.11.2016 06:22 5,8 C 94 % 1014,9 hPa 0,0 l/m 9,5 km/h (2 Bft) W-SW 258 0 min 0,000 mm 0,0 UV-I 0 W/m 4,9 C 3,3 C 12,9 km/h (3 Bft) 98,11 %
27.11.2016 06:24 5,8 C 94 % 1014,8 hPa 0,0 l/m 10,8 km/h (2 Bft) W-SW 245 0 min 0,000 mm 0,0 UV-I 0 W/m 4,9 C 2,4 C 16,1 km/h (3 Bft) 98,00 %
27.11.2016 06:26 5,8 C 94 % 1014,9 hPa 0,0 l/m 9,2 km/h (2 Bft) SW 229 0 min 0,000 mm 0,0 UV-I 0 W/m 4,9 C 3,5 C 17,7 km/h (3 Bft) 100,00 %
27.11.2016 06:28 5,8 C 94 % 1014,9 hPa 0,0 l/m 11,0 km/h (2 Bft) W-SW 240 0 min 0,000 mm 0,0 UV-I 0 W/m 4,9 C 2,3 C 16,1 km/h (3 Bft) 100,00 %
27.11.2016 06:30 5,8 C 94 % 1014,9 hPa 0,0 l/m 12,9 km/h (3 Bft) W 260 0 min 0,000 mm 0,0 UV-I 0 W/m 4,9 C 1,2 C 19,3 km/h (3 Bft) 100,00 %
27.11.2016 06:32 5,8 C 94 % 1014,9 hPa 0,0 l/m 8,3 km/h (2 Bft) W-SW 252 0 min 0,000 mm 0,0 UV-I 0 W/m 4,9 C 4,2 C 11,3 km/h (2 Bft) 100,00 %
27.11.2016 06:34 5,8 C 94 % 1014,9 hPa 0,0 l/m 10,1 km/h (2 Bft) W-SW 246 0 min 0,000 mm 0,0 UV-I 0 W/m 4,9 C 2,9 C 16,1 km/h (3 Bft) 100,00 %
27.11.2016 06:36 5,8 C 94 % 1014,9 hPa 0,0 l/m 8,6 km/h (2 Bft) W-SW 257 0 min 0,000 mm 0,0 UV-I 0 W/m 4,9 C 4,0 C 20,9 km/h (4 Bft) 100,00 %
27.11.2016 06:38 5,8 C 94 % 1015,0 hPa 0,0 l/m 7,6 km/h (2 Bft) W-SW 248 0 min 0,000 mm 0,0 UV-I 0 W/m 4,9 C 4,8 C 14,5 km/h (3 Bft) 97,44 %
27.11.2016 06:40 5,8 C 94 % 1015,0 hPa 0,0 l/m 9,3 km/h (2 Bft) SW 234 0 min 0,000 mm 0,0 UV-I 0 W/m 4,9 C 3,4 C 14,5 km/h (3 Bft) 98,18 %
27.11.2016 06:42 5,8 C 94 % 1014,9 hPa 0,0 l/m 7,4 km/h (2 Bft) W-NW 282 0 min 0,000 mm 0,0 UV-I 0 W/m 4,9 C 4,9 C 11,3 km/h (2 Bft) 97,44 %
27.11.2016 06:44 5,8 C 94 % 1015,0 hPa 0,0 l/m 8,4 km/h (2 Bft) W-SW 254 0 min 0,000 mm 0,0 UV-I 0 W/m 4,9 C 4,1 C 12,9 km/h (3 Bft) 100,00 %
27.11.2016 06:46 5,7 C 95 % 1015,0 hPa 0,0 l/m 6,6 km/h (2 Bft) W-SW 240 0 min 0,000 mm 0,0 UV-I 0 W/m 5,0 C 5,6 C 9,7 km/h (2 Bft) 98,00 %
27.11.2016 06:48 5,7 C 95 % 1015,0 hPa 0,0 l/m 10,1 km/h (2 Bft) W 259 0 min 0,000 mm 0,0 UV-I 0 W/m 5,0 C 2,8 C 16,1 km/h (3 Bft) 95,12 %
27.11.2016 06:50 5,7 C 95 % 1015,0 hPa 0,0 l/m 12,4 km/h (3 Bft) W 260 0 min 0,000 mm 0,0 UV-I 0 W/m 5,0 C 1,3 C 19,3 km/h (3 Bft) 98,00 %
27.11.2016 06:52 5,7 C 95 % 1015,0 hPa 0,0 l/m 12,8 km/h (3 Bft) W-SW 248 0 min 0,000 mm 0,0 UV-I 0 W/m 5,0 C 1,1 C 19,3 km/h (3 Bft) 97,73 %
27.11.2016 06:54 5,7 C 95 % 1015,0 hPa 0,0 l/m 13,0 km/h (3 Bft) SW 236 0 min 0,000 mm 0,0 UV-I 0 W/m 5,0 C 1,0 C 17,7 km/h (3 Bft) 96,23 %
27.11.2016 06:56 5,7 C 95 % 1015,0 hPa 0,0 l/m 10,1 km/h (2 Bft) W-SW 252 0 min 0,000 mm 0,0 UV-I 0 W/m 5,0 C 2,8 C 12,9 km/h (3 Bft) 97,73 %
27.11.2016 06:58 5,7 C 95 % 1015,0 hPa 0,0 l/m 8,4 km/h (2 Bft) SW 236 0 min 0,000 mm 0,0 UV-I 0 W/m 5,0 C 4,0 C 12,9 km/h (3 Bft) 96,23 %
27.11.2016 07:00 5,7 C 95 % 1015,0 hPa 0,0 l/m 10,8 km/h (2 Bft) W-SW 256 0 min 0,000 mm 0,0 UV-I 0 W/m 5,0 C 2,3 C 17,7 km/h (3 Bft) 97,37 %
27.11.2016 07:02 5,7 C 95 % 1015,0 hPa 0,0 l/m 9,9 km/h (2 Bft) W-SW 258 0 min 0,000 mm 0,0 UV-I 0 W/m 5,0 C 2,9 C 16,1 km/h (3 Bft) 96,00 %
27.11.2016 07:04 5,7 C 95 % 1015,0 hPa 0,0 l/m 11,5 km/h (2 Bft) SW 231 0 min 0,000 mm 0,0 UV-I 0 W/m 5,0 C 1,9 C 16,1 km/h (3 Bft) 97,73 %
27.11.2016 07:06 5,7 C 95 % 1015,0 hPa 0,0 l/m 10,4 km/h (2 Bft) W-SW 242 0 min 0,000 mm 0,0 UV-I 0 W/m 5,0 C 2,6 C 14,5 km/h (3 Bft) 94,64 %
27.11.2016 07:08 5,7 C 95 % 1015,1 hPa 0,0 l/m 12,0 km/h (2 Bft) SW 220 0 min 0,000 mm 0,0 UV-I 0 W/m 5,0 C 1,6 C 16,1 km/h (3 Bft) 96,30 %
27.11.2016 07:10 5,7 C 95 % 1015,0 hPa 0,0 l/m 11,5 km/h (2 Bft) W-SW 250 0 min 0,000 mm 0,0 UV-I 0 W/m 5,0 C 1,9 C 19,3 km/h (3 Bft) 94,03 %
27.11.2016 07:12 5,7 C 95 % 1015,0 hPa 0,0 l/m 7,6 km/h (2 Bft) W 276 0 min 0,000 mm 0,0 UV-I 0 W/m 5,0 C 4,7 C 11,3 km/h (2 Bft) 97,73 %
27.11.2016 07:14 5,7 C 95 % 1015,0 hPa 0,0 l/m 10,5 km/h (2 Bft) W-SW 250 0 min 0,000 mm 0,0 UV-I 0 W/m 5,0 C 2,5 C 14,5 km/h (3 Bft) 95,74 %
27.11.2016 07:16 5,7 C 95 % 1015,1 hPa 0,0 l/m 12,4 km/h (3 Bft) W 265 0 min 0,000 mm 0,0 UV-I 0 W/m 5,0 C 1,3 C 16,1 km/h (3 Bft) 97,73 %
27.11.2016 07:18 5,7 C 95 % 1015,1 hPa 0,0 l/m 11,2 km/h (2 Bft) W-SW 258 0 min 0,000 mm 0,0 UV-I 0 W/m 5,0 C 2,1 C 14,5 km/h (3 Bft) 97,62 %
27.11.2016 07:20 5,7 C 95 % 1015,1 hPa 0,0 l/m 10,4 km/h (2 Bft) SW 217 0 min 0,000 mm 0,0 UV-I 0 W/m 5,0 C 2,6 C 16,1 km/h (3 Bft) 98,11 %
27.11.2016 07:22 5,7 C 95 % 1015,1 hPa 0,0 l/m 10,7 km/h (2 Bft) W-SW 245 0 min 0,000 mm 0,0 UV-I 0 W/m 5,0 C 2,4 C 17,7 km/h (3 Bft) 100,00 %
27.11.2016 07:24 5,7 C 95 % 1015,1 hPa 0,0 l/m 9,9 km/h (2 Bft) SW 233 0 min 0,000 mm 0,0 UV-I 0 W/m 5,0 C 2,9 C 14,5 km/h (3 Bft) 100,00 %
27.11.2016 07:26 5,7 C 94 % 1015,2 hPa 0,0 l/m 8,8 km/h (2 Bft) W-SW 248 0 min 0,000 mm 0,0 UV-I 0 W/m 4,8 C 3,7 C 12,9 km/h (3 Bft) 98,00 %
27.11.2016 07:28 5,7 C 94 % 1015,2 hPa 0,0 l/m 7,2 km/h (2 Bft) SW 225 0 min 0,000 mm 0,0 UV-I 0 W/m 4,8 C 5,0 C 11,3 km/h (2 Bft) 100,00 %
27.11.2016 07:30 5,7 C 94 % 1015,2 hPa 0,0 l/m 7,7 km/h (2 Bft) W-SW 248 0 min 0,000 mm 0,0 UV-I 0 W/m 4,8 C 4,6 C 11,3 km/h (2 Bft) 98,11 %
27.11.2016 07:32 5,7 C 94 % 1015,1 hPa 0,0 l/m 10,8 km/h (2 Bft) SW 225 0 min 0,000 mm 0,0 UV-I 0 W/m 4,8 C 2,3 C 16,1 km/h (3 Bft) 100,00 %
27.11.2016 07:34 5,7 C 94 % 1015,2 hPa 0,0 l/m 9,9 km/h (2 Bft) W-SW 244 0 min 0,000 mm 0,0 UV-I 0 W/m 4,8 C 2,9 C 17,7 km/h (3 Bft) 100,00 %
27.11.2016 07:36 5,7 C 94 % 1015,2 hPa 0,0 l/m 9,4 km/h (2 Bft) W 260 0 min 0,000 mm 0,0 UV-I 0 W/m 4,8 C 3,3 C 12,9 km/h (3 Bft) 100,00 %
27.11.2016 07:38 5,7 C 94 % 1015,3 hPa 0,0 l/m 9,9 km/h (2 Bft) SW 234 0 min 0,000 mm 0,0 UV-I 0 W/m 4,8 C 2,9 C 16,1 km/h (3 Bft) 100,00 %
27.11.2016 07:40 5,7 C 95 % 1015,3 hPa 0,0 l/m 10,0 km/h (2 Bft) SW 219 0 min 0,000 mm 0,0 UV-I 3 W/m 5,0 C 2,8 C 16,1 km/h (3 Bft) 97,56 %
27.11.2016 07:42 5,7 C 95 % 1015,3 hPa 0,0 l/m 8,9 km/h (2 Bft) S-SW 210 0 min 0,000 mm 0,0 UV-I 5 W/m 5,0 C 3,6 C 14,5 km/h (3 Bft) 98,00 %
27.11.2016 07:44 5,7 C 95 % 1015,3 hPa 0,0 l/m 10,0 km/h (2 Bft) SW 233 0 min 0,000 mm 0,0 UV-I 5 W/m 5,0 C 2,8 C 14,5 km/h (3 Bft) 100,00 %
27.11.2016 07:46 5,7 C 95 % 1015,3 hPa 0,0 l/m 7,9 km/h (2 Bft) W-SW 242 0 min 0,000 mm 0,0 UV-I 5 W/m 5,0 C 4,4 C 11,3 km/h (2 Bft) 100,00 %
27.11.2016 07:48 5,7 C 95 % 1015,3 hPa 0,0 l/m 11,3 km/h (2 Bft) SW 235 0 min 0,000 mm 0,0 UV-I 5 W/m 5,0 C 2,0 C 17,7 km/h (3 Bft) 100,00 %
27.11.2016 07:50 5,7 C 95 % 1015,2 hPa 0,0 l/m 13,0 km/h (3 Bft) W-SW 238 0 min 0,000 mm 0,0 UV-I 5 W/m 5,0 C 1,0 C 20,9 km/h (4 Bft) 100,00 %
27.11.2016 07:52 5,7 C 95 % 1015,2 hPa 0,0 l/m 9,9 km/h (2 Bft) SW 220 0 min 0,000 mm 0,0 UV-I 6 W/m 5,0 C 2,9 C 17,7 km/h (3 Bft) 100,00 %
27.11.2016 07:54 5,7 C 94 % 1015,2 hPa 0,0 l/m 10,7 km/h (2 Bft) W 264 0 min 0,000 mm 0,0 UV-I 6 W/m 4,8 C 2,4 C 14,5 km/h (3 Bft) 100,00 %
27.11.2016 07:56 5,7 C 94 % 1015,2 hPa 0,0 l/m 10,0 km/h (2 Bft) W-SW 245 0 min 0,000 mm 0,0 UV-I 7 W/m 4,8 C 2,8 C 17,7 km/h (3 Bft) 100,00 %
27.11.2016 07:58 5,7 C 94 % 1015,2 hPa 0,0 l/m 14,0 km/h (3 Bft) W-SW 252 0 min 0,000 mm 0,0 UV-I 8 W/m 4,8 C 0,4 C 20,9 km/h (4 Bft) 97,87 %
27.11.2016 08:00 5,7 C 94 % 1015,2 hPa 0,0 l/m 10,6 km/h (2 Bft) S-SW 206 0 min 0,000 mm 0,0 UV-I 9 W/m 4,8 C 2,4 C 14,5 km/h (3 Bft) 96,00 %
27.11.2016 08:02 5,7 C 94 % 1015,2 hPa 0,0 l/m 10,6 km/h (2 Bft) SW 229 0 min 0,000 mm 0,0 UV-I 10 W/m 4,8 C 2,4 C 16,1 km/h (3 Bft) 100,00 %
27.11.2016 08:04 5,7 C 94 % 1015,2 hPa 0,0 l/m 10,6 km/h (2 Bft) W-SW 250 0 min 0,000 mm 0,0 UV-I 9 W/m 4,8 C 2,4 C 16,1 km/h (3 Bft) 100,00 %
27.11.2016 08:06 5,7 C 94 % 1015,3 hPa 0,0 l/m 9,5 km/h (2 Bft) W-SW 242 0 min 0,000 mm 0,0 UV-I 9 W/m 4,8 C 3,2 C 16,1 km/h (3 Bft) 97,37 %
27.11.2016 08:08 5,7 C 94 % 1015,3 hPa 0,0 l/m 9,7 km/h (2 Bft) SW 227 0 min 0,000 mm 0,0 UV-I 9 W/m 4,8 C 3,1 C 12,9 km/h (3 Bft) 100,00 %
27.11.2016 08:10 5,7 C 94 % 1015,3 hPa 0,0 l/m 8,0 km/h (2 Bft) S-SW 211 0 min 0,000 mm 0,0 UV-I 10 W/m 4,8 C 4,3 C 12,9 km/h (3 Bft) 100,00 %
27.11.2016 08:12 5,7 C 94 % 1015,3 hPa 0,0 l/m 10,1 km/h (2 Bft) SW 221 0 min 0,000 mm 0,0 UV-I 11 W/m 4,8 C 2,8 C 14,5 km/h (3 Bft) 100,00 %
27.11.2016 08:14 5,7 C 94 % 1015,3 hPa 0,0 l/m 10,2 km/h (2 Bft) SW 226 0 min 0,000 mm 0,0 UV-I 12 W/m 4,8 C 2,7 C 16,1 km/h (3 Bft) 100,00 %
27.11.2016 08:16 5,7 C 94 % 1015,3 hPa 0,0 l/m 9,7 km/h (2 Bft) SW 236 0 min 0,000 mm 0,0 UV-I 12 W/m 4,8 C 3,1 C 16,1 km/h (3 Bft) 95,74 %
27.11.2016 08:18 5,7 C 94 % 1015,3 hPa 0,0 l/m 9,4 km/h (2 Bft) W-SW 252 0 min 0,000 mm 0,0 UV-I 12 W/m 4,8 C 3,3 C 14,5 km/h (3 Bft) 97,56 %
27.11.2016 08:20 5,7 C 94 % 1015,4 hPa 0,0 l/m 10,0 km/h (2 Bft) SW 227 0 min 0,000 mm 0,0 UV-I 11 W/m 4,8 C 2,8 C 17,7 km/h (3 Bft) 100,00 %
27.11.2016 08:22 5,7 C 95 % 1015,3 hPa 0,0 l/m 9,3 km/h (2 Bft) SW 222 0 min 0,000 mm 0,0 UV-I 12 W/m 5,0 C 3,3 C 14,5 km/h (3 Bft) 100,00 %
27.11.2016 08:24 5,7 C 95 % 1015,4 hPa 0,0 l/m 11,0 km/h (2 Bft) SW 225 0 min 0,000 mm 0,0 UV-I 14 W/m 5,0 C 2,2 C 16,1 km/h (3 Bft) 97,56 %
27.11.2016 08:26 5,7 C 95 % 1015,4 hPa 0,0 l/m 10,1 km/h (2 Bft) S-SW 203 0 min 0,000 mm 0,0 UV-I 14 W/m 5,0 C 2,8 C 17,7 km/h (3 Bft) 100,00 %
27.11.2016 08:28 5,7 C 95 % 1015,4 hPa 0,0 l/m 8,8 km/h (2 Bft) W-SW 246 0 min 0,000 mm 0,0 UV-I 16 W/m 5,0 C 3,7 C 14,5 km/h (3 Bft) 97,87 %
27.11.2016 08:30 5,7 C 95 % 1015,4 hPa 0,0 l/m 11,6 km/h (2 Bft) W 261 0 min 0,000 mm 0,0 UV-I 15 W/m 5,0 C 1,8 C 16,1 km/h (3 Bft) 96,00 %
27.11.2016 08:32 5,7 C 95 % 1015,4 hPa 0,0 l/m 10,6 km/h (2 Bft) W-SW 252 0 min 0,000 mm 0,0 UV-I 16 W/m 5,0 C 2,4 C 14,5 km/h (3 Bft) 97,37 %
27.11.2016 08:34 5,7 C 95 % 1015,5 hPa 0,0 l/m 11,6 km/h (2 Bft) W-SW 247 0 min 0,000 mm 0,0 UV-I 19 W/m 5,0 C 1,8 C 16,1 km/h (3 Bft) 95,24 %
27.11.2016 08:36 5,7 C 95 % 1015,5 hPa 0,0 l/m 10,4 km/h (2 Bft) SW 235 0 min 0,000 mm 0,0 UV-I 28 W/m 5,0 C 2,6 C 17,7 km/h (3 Bft) 100,00 %
27.11.2016 08:38 5,7 C 95 % 1015,4 hPa 0,0 l/m 10,3 km/h (2 Bft) W-SW 241 0 min 0,000 mm 0,0 UV-I 33 W/m 5,0 C 2,6 C 14,5 km/h (3 Bft) 100,00 %
27.11.2016 08:40 5,8 C 95 % 1015,4 hPa 0,0 l/m 8,4 km/h (2 Bft) SW 218 0 min 0,000 mm 0,0 UV-I 36 W/m 5,1 C 4,1 C 12,9 km/h (3 Bft) 100,00 %
27.11.2016 08:42 5,8 C 95 % 1015,4 hPa 0,0 l/m 11,7 km/h (2 Bft) SW 223 0 min 0,000 mm 0,0 UV-I 45 W/m 5,1 C 1,9 C 16,1 km/h (3 Bft) 100,00 %
27.11.2016 08:44 5,8 C 95 % 1015,4 hPa 0,0 l/m 9,9 km/h (2 Bft) SW 223 0 min 0,000 mm 0,0 UV-I 49 W/m 5,1 C 3,0 C 16,1 km/h (3 Bft) 100,00 %
27.11.2016 08:46 5,8 C 95 % 1015,4 hPa 0,0 l/m 10,0 km/h (2 Bft) W-SW 252 0 min 0,000 mm 0,0 UV-I 52 W/m 5,1 C 3,0 C 20,9 km/h (4 Bft) 100,00 %
27.11.2016 08:48 5,8 C 95 % 1015,4 hPa 0,0 l/m 12,0 km/h (2 Bft) SW 221 0 min 0,000 mm 0,0 UV-I 50 W/m 5,1 C 1,7 C 17,7 km/h (3 Bft) 98,39 %
27.11.2016 08:50 5,8 C 95 % 1015,4 hPa 0,0 l/m 8,3 km/h (2 Bft) W-SW 240 0 min 0,000 mm 0,0 UV-I 44 W/m 5,1 C 4,2 C 14,5 km/h (3 Bft) 96,00 %
27.11.2016 08:52 5,9 C 95 % 1015,4 hPa 0,0 l/m 8,6 km/h (2 Bft) W-SW 244 0 min 0,000 mm 0,0 UV-I 50 W/m 5,2 C 4,1 C 12,9 km/h (3 Bft) 100,00 %
27.11.2016 08:54 5,9 C 95 % 1015,5 hPa 0,0 l/m 7,5 km/h (2 Bft) W 262 0 min 0,000 mm 0,0 UV-I 48 W/m 5,2 C 5,0 C 11,3 km/h (2 Bft) 96,43 %
27.11.2016 08:56 5,9 C 94 % 1015,5 hPa 0,0 l/m 8,9 km/h (2 Bft) W 261 0 min 0,000 mm 0,0 UV-I 48 W/m 5,0 C 3,9 C 12,9 km/h (3 Bft) 100,00 %
27.11.2016 08:58 5,9 C 94 % 1015,5 hPa 0,0 l/m 11,5 km/h (2 Bft) S-SW 212 0 min 0,000 mm 0,0 UV-I 53 W/m 5,0 C 2,1 C 19,3 km/h (3 Bft) 92,00 %
27.11.2016 09:00 5,9 C 95 % 1015,5 hPa 0,0 l/m 8,9 km/h (2 Bft) SW 223 0 min 0,025 mm 0,0 UV-I 58 W/m 5,2 C 3,9 C 14,5 km/h (3 Bft) 97,73 %
27.11.2016 09:02 6,0 C 95 % 1015,5 hPa 0,0 l/m 9,0 km/h (2 Bft) W-SW 238 0 min 0,000 mm 0,0 UV-I 67 W/m 5,3 C 3,9 C 17,7 km/h (3 Bft) 98,00 %
27.11.2016 09:04 6,0 C 94 % 1015,4 hPa 0,0 l/m 9,1 km/h (2 Bft) SW 231 0 min 0,000 mm 0,0 UV-I 77 W/m 5,1 C 3,8 C 16,1 km/h (3 Bft) 95,12 %
27.11.2016 09:06 6,1 C 95 % 1015,4 hPa 0,0 l/m 9,5 km/h (2 Bft) W-SW 237 0 min 0,000 mm 0,0 UV-I 84 W/m 5,4 C 3,6 C 14,5 km/h (3 Bft) 98,11 %
27.11.2016 09:08 6,1 C 95 % 1015,4 hPa 0,0 l/m 11,0 km/h (2 Bft) W-SW 242 0 min 0,000 mm 0,0 UV-I 95 W/m 5,4 C 2,6 C 16,1 km/h (3 Bft) 98,00 %
27.11.2016 09:10 6,1 C 94 % 1015,3 hPa 0,0 l/m 12,9 km/h (3 Bft) W-SW 241 0 min 0,000 mm 0,0 UV-I 109 W/m 5,2 C 1,5 C 17,7 km/h (3 Bft) 97,37 %
27.11.2016 09:12 6,1 C 94 % 1015,3 hPa 0,0 l/m 12,7 km/h (3 Bft) S-SW 211 2 min 0,000 mm 0,0 UV-I 118 W/m 5,2 C 1,6 C 17,7 km/h (3 Bft) 96,23 %
27.11.2016 09:14 6,1 C 95 % 1015,3 hPa 0,0 l/m 13,4 km/h (3 Bft) W-SW 246 2 min 0,000 mm 0,0 UV-I 126 W/m 5,4 C 1,2 C 19,3 km/h (3 Bft) 98,00 %
27.11.2016 09:16 6,2 C 95 % 1015,3 hPa 0,0 l/m 10,9 km/h (2 Bft) SW 232 2 min 0,000 mm 0,0 UV-I 138 W/m 5,5 C 2,8 C 16,1 km/h (3 Bft) 97,56 %
27.11.2016 09:18 6,2 C 94 % 1015,3 hPa 0,0 l/m 10,3 km/h (2 Bft) W-SW 243 2 min 0,000 mm 0,0 UV-I 124 W/m 5,3 C 3,2 C 19,3 km/h (3 Bft) 94,87 %
27.11.2016 09:20 6,2 C 94 % 1015,3 hPa 0,0 l/m 10,1 km/h (2 Bft) W-SW 237 0 min 0,000 mm 0,0 UV-I 122 W/m 5,3 C 3,3 C 14,5 km/h (3 Bft) 98,31 %
27.11.2016 09:22 6,3 C 94 % 1015,4 hPa 0,0 l/m 10,0 km/h (2 Bft) W 267 0 min 0,000 mm 0,0 UV-I 105 W/m 5,4 C 3,5 C 16,1 km/h (3 Bft) 95,12 %
27.11.2016 09:24 6,3 C 94 % 1015,4 hPa 0,0 l/m 9,0 km/h (2 Bft) W-SW 256 0 min 0,000 mm 0,0 UV-I 109 W/m 5,4 C 4,2 C 14,5 km/h (3 Bft) 97,73 %
27.11.2016 09:26 6,3 C 94 % 1015,4 hPa 0,0 l/m 10,9 km/h (2 Bft) W-SW 238 0 min 0,000 mm 0,0 UV-I 120 W/m 5,4 C 2,9 C 19,3 km/h (3 Bft) 98,11 %
27.11.2016 09:28 6,3 C 94 % 1015,4 hPa 0,0 l/m 14,6 km/h (3 Bft) W-SW 255 0 min 0,000 mm 0,0 UV-I 123 W/m 5,4 C 0,8 C 19,3 km/h (3 Bft) 100,00 %
27.11.2016 09:30 6,3 C 93 % 1015,3 hPa 0,0 l/m 12,2 km/h (2 Bft) SW 217 0 min 0,000 mm 0,0 UV-I 124 W/m 5,3 C 2,1 C 17,7 km/h (3 Bft) 100,00 %
27.11.2016 09:32 6,3 C 94 % 1015,3 hPa 0,0 l/m 13,5 km/h (3 Bft) W-SW 247 2 min 0,000 mm 0,0 UV-I 140 W/m 5,4 C 1,4 C 19,3 km/h (3 Bft) 100,00 %
27.11.2016 09:34 6,3 C 94 % 1015,3 hPa 0,0 l/m 11,4 km/h (2 Bft) W-SW 246 0 min 0,000 mm 0,0 UV-I 133 W/m 5,4 C 2,6 C 19,3 km/h (3 Bft) 98,11 %
27.11.2016 09:36 6,4 C 93 % 1015,4 hPa 0,0 l/m 16,1 km/h (3 Bft) W-SW 244 0 min 0,000 mm 0,0 UV-I 115 W/m 5,4 C 0,3 C 22,5 km/h (4 Bft) 100,00 %
27.11.2016 09:38 6,4 C 93 % 1015,4 hPa 0,0 l/m 10,2 km/h (2 Bft) W 266 0 min 0,000 mm 0,0 UV-I 78 W/m 5,4 C 3,5 C 14,5 km/h (3 Bft) 100,00 %
27.11.2016 09:40 6,4 C 93 % 1015,4 hPa 0,0 l/m 13,1 km/h (3 Bft) SW 229 0 min 0,000 mm 0,0 UV-I 63 W/m 5,4 C 1,7 C 17,7 km/h (3 Bft) 100,00 %
27.11.2016 09:42 6,4 C 93 % 1015,4 hPa 0,0 l/m 9,4 km/h (2 Bft) W-SW 238 0 min 0,000 mm 0,0 UV-I 56 W/m 5,4 C 4,0 C 14,5 km/h (3 Bft) 93,62 %
27.11.2016 09:44 6,4 C 93 % 1015,5 hPa 0,0 l/m 11,4 km/h (2 Bft) W-SW 240 0 min 0,000 mm 0,0 UV-I 46 W/m 5,4 C 2,7 C 17,7 km/h (3 Bft) 98,00 %
27.11.2016 09:46 6,4 C 93 % 1015,5 hPa 0,0 l/m 12,5 km/h (3 Bft) W 273 0 min 0,000 mm 0,0 UV-I 52 W/m 5,4 C 2,1 C 19,3 km/h (3 Bft) 100,00 %
27.11.2016 09:48 6,3 C 93 % 1015,5 hPa 0,0 l/m 12,0 km/h (2 Bft) W-SW 253 0 min 0,000 mm 0,0 UV-I 43 W/m 5,3 C 2,3 C 20,9 km/h (4 Bft) 98,18 %
27.11.2016 09:50 6,3 C 93 % 1015,5 hPa 0,0 l/m 8,4 km/h (2 Bft) W-SW 241 0 min 0,000 mm 0,0 UV-I 47 W/m 5,3 C 4,7 C 17,7 km/h (3 Bft) 97,56 %
27.11.2016 09:52 6,3 C 93 % 1015,5 hPa 0,0 l/m 11,0 km/h (2 Bft) SW 232 0 min 0,000 mm 0,0 UV-I 65 W/m 5,3 C 2,9 C 17,7 km/h (3 Bft) 100,00 %
27.11.2016 09:54 6,3 C 93 % 1015,5 hPa 0,0 l/m 11,9 km/h (2 Bft) W-SW 252 0 min 0,000 mm 0,0 UV-I 76 W/m 5,3 C 2,3 C 16,1 km/h (3 Bft) 96,67 %
27.11.2016 09:56 6,4 C 93 % 1015,5 hPa 0,0 l/m 10,5 km/h (2 Bft) W 264 0 min 0,000 mm 0,0 UV-I 78 W/m 5,4 C 3,3 C 19,3 km/h (3 Bft) 100,00 %
27.11.2016 09:58 6,4 C 93 % 1015,5 hPa 0,0 l/m 11,5 km/h (2 Bft) SW 233 0 min 0,000 mm 0,0 UV-I 69 W/m 5,4 C 2,7 C 17,7 km/h (3 Bft) 100,00 %
27.11.2016 10:00 6,4 C 93 % 1015,6 hPa 0,0 l/m 12,2 km/h (2 Bft) SW 230 0 min 0,051 mm 0,0 UV-I 74 W/m 5,4 C 2,3 C 19,3 km/h (3 Bft) 100,00 %
27.11.2016 10:02 6,4 C 93 % 1015,6 hPa 0,0 l/m 16,0 km/h (3 Bft) W-SW 237 0 min 0,000 mm 0,0 UV-I 68 W/m 5,4 C 0,3 C 22,5 km/h (4 Bft) 97,37 %
27.11.2016 10:04 6,4 C 93 % 1015,5 hPa 0,0 l/m 12,5 km/h (3 Bft) W-SW 255 0 min 0,000 mm 0,0 UV-I 58 W/m 5,4 C 2,1 C 19,3 km/h (3 Bft) 100,00 %
27.11.2016 10:06 6,4 C 93 % 1015,6 hPa 0,0 l/m 10,4 km/h (2 Bft) SW 224 0 min 0,000 mm 0,0 UV-I 51 W/m 5,4 C 3,4 C 14,5 km/h (3 Bft) 100,00 %
27.11.2016 10:08 6,4 C 93 % 1015,5 hPa 0,0 l/m 10,8 km/h (2 Bft) SW 222 0 min 0,000 mm 0,0 UV-I 50 W/m 5,4 C 3,1 C 16,1 km/h (3 Bft) 100,00 %
27.11.2016 10:10 6,4 C 93 % 1015,6 hPa 0,0 l/m 16,6 km/h (3 Bft) W-SW 250 0 min 0,000 mm 0,0 UV-I 58 W/m 5,4 C 0,0 C 24,1 km/h (4 Bft) 100,00 %
27.11.2016 10:12 6,4 C 93 % 1015,6 hPa 0,0 l/m 13,8 km/h (3 Bft) SW 221 0 min 0,000 mm 0,0 UV-I 58 W/m 5,4 C 1,4 C 19,3 km/h (3 Bft) 100,00 %
27.11.2016 10:14 6,4 C 93 % 1015,5 hPa 0,0 l/m 13,2 km/h (3 Bft) SW 217 0 min 0,000 mm 0,0 UV-I 54 W/m 5,4 C 1,7 C 19,3 km/h (3 Bft) 100,00 %
27.11.2016 10:16 6,4 C 93 % 1015,6 hPa 0,0 l/m 12,2 km/h (2 Bft) W-SW 238 0 min 0,000 mm 0,0 UV-I 49 W/m 5,4 C 2,3 C 17,7 km/h (3 Bft) 100,00 %
27.11.2016 10:18 6,4 C 93 % 1015,6 hPa 0,0 l/m 11,1 km/h (2 Bft) W-SW 246 0 min 0,000 mm 0,0 UV-I 41 W/m 5,4 C 2,9 C 16,1 km/h (3 Bft) 100,00 %
27.11.2016 10:20 6,4 C 93 % 1015,7 hPa 0,0 l/m 10,4 km/h (2 Bft) SW 220 0 min 0,000 mm 0,0 UV-I 45 W/m 5,4 C 3,4 C 19,3 km/h (3 Bft) 100,00 %
27.11.2016 10:22 6,4 C 93 % 1015,6 hPa 0,0 l/m 12,3 km/h (3 Bft) SW 227 0 min 0,000 mm 0,0 UV-I 47 W/m 5,4 C 2,2 C 19,3 km/h (3 Bft) 100,00 %
27.11.2016 10:24 6,4 C 93 % 1015,7 hPa 0,0 l/m 12,7 km/h (3 Bft) S-SW 206 0 min 0,000 mm 0,0 UV-I 41 W/m 5,4 C 2,0 C 19,3 km/h (3 Bft) 100,00 %
27.11.2016 10:26 6,4 C 93 % 1015,7 hPa 0,0 l/m 10,5 km/h (2 Bft) SW 236 0 min 0,000 mm 0,0 UV-I 36 W/m 5,4 C 3,3 C 16,1 km/h (3 Bft) 97,87 %
27.11.2016 10:28 6,4 C 93 % 1015,6 hPa 0,0 l/m 10,5 km/h (2 Bft) SW 221 0 min 0,000 mm 0,0 UV-I 39 W/m 5,4 C 3,3 C 16,1 km/h (3 Bft) 100,00 %
27.11.2016 10:30 6,4 C 93 % 1015,7 hPa 0,0 l/m 10,1 km/h (2 Bft) W 274 0 min 0,000 mm 0,0 UV-I 39 W/m 5,4 C 3,6 C 14,5 km/h (3 Bft) 100,00 %
27.11.2016 10:32 6,4 C 93 % 1015,6 hPa 0,0 l/m 11,5 km/h (2 Bft) W-SW 246 0 min 0,000 mm 0,0 UV-I 47 W/m 5,4 C 2,7 C 17,7 km/h (3 Bft) 100,00 %
27.11.2016 10:34 6,4 C 93 % 1015,6 hPa 0,0 l/m 9,5 km/h (2 Bft) W-SW 252 0 min 0,000 mm 0,0 UV-I 62 W/m 5,4 C 4,0 C 12,9 km/h (3 Bft) 100,00 %
27.11.2016 10:36 6,4 C 93 % 1015,5 hPa 0,0 l/m 10,0 km/h (2 Bft) SW 228 0 min 0,000 mm 0,0 UV-I 85 W/m 5,4 C 3,6 C 16,1 km/h (3 Bft) 100,00 %
27.11.2016 10:38 6,5 C 93 % 1015,5 hPa 0,0 l/m 11,0 km/h (2 Bft) W-SW 248 0 min 0,000 mm 0,0 UV-I 97 W/m 5,5 C 3,1 C 17,7 km/h (3 Bft) 100,00 %
27.11.2016 10:40 6,6 C 92 % 1015,5 hPa 0,0 l/m 11,7 km/h (2 Bft) SW 229 0 min 0,000 mm 0,0 UV-I 108 W/m 5,4 C 2,8 C 17,7 km/h (3 Bft) 100,00 %
27.11.2016 10:42 6,6 C 92 % 1015,4 hPa 0,0 l/m 14,4 km/h (3 Bft) W 267 0 min 0,000 mm 0,0 UV-I 105 W/m 5,4 C 1,3 C 20,9 km/h (4 Bft) 100,00 %
27.11.2016 10:44 6,6 C 92 % 1015,5 hPa 0,0 l/m 10,0 km/h (2 Bft) W-SW 251 0 min 0,000 mm 0,0 UV-I 95 W/m 5,4 C 3,8 C 14,5 km/h (3 Bft) 100,00 %
27.11.2016 10:46 6,7 C 92 % 1015,4 hPa 0,0 l/m 13,7 km/h (3 Bft) W-SW 255 0 min 0,000 mm 0,0 UV-I 85 W/m 5,5 C 1,8 C 17,7 km/h (3 Bft) 100,00 %
27.11.2016 10:48 6,7 C 92 % 1015,4 hPa 0,0 l/m 9,9 km/h (2 Bft) W-SW 240 0 min 0,000 mm 0,0 UV-I 79 W/m 5,5 C 4,0 C 16,1 km/h (3 Bft) 100,00 %
27.11.2016 10:50 6,7 C 92 % 1015,4 hPa 0,0 l/m 12,4 km/h (3 Bft) W-SW 248 0 min 0,000 mm 0,0 UV-I 74 W/m 5,5 C 2,5 C 17,7 km/h (3 Bft) 100,00 %
27.11.2016 10:52 6,7 C 91 % 1015,3 hPa 0,0 l/m 10,9 km/h (2 Bft) W-SW 251 0 min 0,000 mm 0,0 UV-I 70 W/m 5,3 C 3,4 C 16,1 km/h (3 Bft) 100,00 %
27.11.2016 10:54 6,7 C 91 % 1015,3 hPa 0,0 l/m 11,5 km/h (2 Bft) W-SW 244 0 min 0,000 mm 0,0 UV-I 70 W/m 5,3 C 3,0 C 17,7 km/h (3 Bft) 97,87 %
27.11.2016 10:56 6,7 C 90 % 1015,3 hPa 0,0 l/m 13,6 km/h (3 Bft) W-SW 243 0 min 0,000 mm 0,0 UV-I 64 W/m 5,2 C 1,8 C 19,3 km/h (3 Bft) 97,56 %
27.11.2016 10:58 6,7 C 89 % 1015,2 hPa 0,0 l/m 16,2 km/h (3 Bft) W-SW 248 0 min 0,000 mm 0,0 UV-I 56 W/m 5,0 C 0,6 C 24,1 km/h (4 Bft) 96,23 %
27.11.2016 11:00 6,7 C 89 % 1015,2 hPa 0,0 l/m 11,7 km/h (2 Bft) W 262 0 min 0,000 mm 0,0 UV-I 54 W/m 5,0 C 2,9 C 14,5 km/h (3 Bft) 97,56 %
27.11.2016 11:03 6,7 C 89 % 1015,1 hPa 0,0 l/m 13,2 km/h (3 Bft) W-SW 244 0 min 0,026 mm 0,0 UV-I 53 W/m 5,0 C 2,0 C 24,1 km/h (4 Bft) 97,30 %
27.11.2016 11:04 6,7 C 89 % 1015,1 hPa 0,0 l/m 13,4 km/h (3 Bft) W-SW 250 0 min 0,000 mm 0,0 UV-I 53 W/m 5,0 C 1,9 C 16,1 km/h (3 Bft) 96,15 %
27.11.2016 11:06 6,7 C 88 % 1015,1 hPa 0,0 l/m 12,5 km/h (3 Bft) W-SW 238 0 min 0,000 mm 0,0 UV-I 52 W/m 4,9 C 2,4 C 20,9 km/h (4 Bft) 92,11 %
27.11.2016 11:08 6,7 C 88 % 1015,2 hPa 0,0 l/m 12,2 km/h (2 Bft) W-SW 247 0 min 0,000 mm 0,0 UV-I 49 W/m 4,9 C 2,6 C 19,3 km/h (3 Bft) 98,11 %
27.11.2016 11:10 6,6 C 88 % 1015,2 hPa 0,0 l/m 13,9 km/h (3 Bft) W 262 0 min 0,000 mm 0,0 UV-I 49 W/m 4,8 C 1,6 C 19,3 km/h (3 Bft) 97,56 %
27.11.2016 11:12 6,6 C 88 % 1015,2 hPa 0,0 l/m 20,6 km/h (4 Bft) SW 236 0 min 0,000 mm 0,0 UV-I 47 W/m 4,8 C -1,3 C 29,0 km/h (5 Bft) 96,43 %
27.11.2016 11:14 6,6 C 88 % 1015,2 hPa 0,0 l/m 13,1 km/h (3 Bft) W 277 0 min 0,000 mm 0,0 UV-I 44 W/m 4,8 C 2,0 C 20,9 km/h (4 Bft) 97,44 %
27.11.2016 11:16 6,6 C 88 % 1015,2 hPa 0,0 l/m 12,2 km/h (2 Bft) W 265 0 min 0,000 mm 0,0 UV-I 45 W/m 4,8 C 2,5 C 17,7 km/h (3 Bft) 96,15 %
27.11.2016 11:18 6,6 C 88 % 1015,1 hPa 0,0 l/m 14,7 km/h (3 Bft) W 277 0 min 0,000 mm 0,0 UV-I 43 W/m 4,8 C 1,2 C 20,9 km/h (4 Bft) 97,44 %
27.11.2016 11:20 6,6 C 88 % 1015,1 hPa 0,0 l/m 10,9 km/h (2 Bft) W-SW 254 0 min 0,000 mm 0,0 UV-I 40 W/m 4,8 C 3,3 C 20,9 km/h (4 Bft) 98,21 %
27.11.2016 11:22 6,6 C 88 % 1015,1 hPa 0,0 l/m 11,3 km/h (2 Bft) W-NW 283 0 min 0,000 mm 0,0 UV-I 39 W/m 4,8 C 3,0 C 16,1 km/h (3 Bft) 97,37 %
27.11.2016 11:24 6,5 C 88 % 1015,1 hPa 0,0 l/m 14,3 km/h (3 Bft) W 263 0 min 0,000 mm 0,0 UV-I 39 W/m 4,7 C 1,2 C 19,3 km/h (3 Bft) 98,00 %
27.11.2016 11:26 6,5 C 88 % 1015,1 hPa 0,0 l/m 12,5 km/h (3 Bft) SW 220 0 min 0,000 mm 0,0 UV-I 37 W/m 4,7 C 2,2 C 20,9 km/h (4 Bft) 98,00 %
27.11.2016 11:28 6,5 C 87 % 1015,1 hPa 0,0 l/m 12,9 km/h (3 Bft) W-NW 299 0 min 0,000 mm 0,0 UV-I 33 W/m 4,5 C 2,0 C 20,9 km/h (4 Bft) 98,00 %
27.11.2016 11:30 6,5 C 88 % 1015,1 hPa 0,0 l/m 9,8 km/h (2 Bft) W-SW 257 0 min 0,000 mm 0,0 UV-I 33 W/m 4,7 C 3,9 C 17,7 km/h (3 Bft) 97,87 %
27.11.2016 11:32 6,4 C 88 % 1015,1 hPa 0,0 l/m 10,6 km/h (2 Bft) W-NW 282 0 min 0,000 mm 0,0 UV-I 30 W/m 4,6 C 3,2 C 19,3 km/h (3 Bft) 95,12 %
27.11.2016 11:34 6,4 C 88 % 1015,1 hPa 0,0 l/m 7,2 km/h (2 Bft) W 263 0 min 0,000 mm 0,0 UV-I 29 W/m 4,6 C 5,7 C 11,3 km/h (2 Bft) 100,00 %
27.11.2016 11:36 6,4 C 88 % 1015,2 hPa 0,0 l/m 11,0 km/h (2 Bft) W-SW 248 0 min 0,000 mm 0,0 UV-I 26 W/m 4,6 C 3,0 C 16,1 km/h (3 Bft) 100,00 %
27.11.2016 11:38 6,4 C 88 % 1015,2 hPa 0,0 l/m 9,5 km/h (2 Bft) W-SW 244 0 min 0,000 mm 0,0 UV-I 26 W/m 4,6 C 4,0 C 14,5 km/h (3 Bft) 100,00 %
27.11.2016 11:40 6,4 C 88 % 1015,1 hPa 0,0 l/m 10,7 km/h (2 Bft) W-SW 256 0 min 0,000 mm 0,0 UV-I 25 W/m 4,6 C 3,2 C 19,3 km/h (3 Bft) 97,87 %
27.11.2016 11:42 6,4 C 88 % 1015,1 hPa 0,0 l/m 14,5 km/h (3 Bft) W-SW 247 0 min 0,000 mm 0,0 UV-I 23 W/m 4,6 C 1,0 C 22,5 km/h (4 Bft) 100,00 %
27.11.2016 11:44 6,4 C 88 % 1015,1 hPa 0,0 l/m 13,0 km/h (3 Bft) W 261 0 min 0,000 mm 0,0 UV-I 23 W/m 4,6 C 1,8 C 22,5 km/h (4 Bft) 100,00 %
27.11.2016 11:46 6,4 C 88 % 1015,1 hPa 0,0 l/m 14,5 km/h (3 Bft) W 278 0 min 0,000 mm 0,0 UV-I 23 W/m 4,6 C 1,0 C 25,7 km/h (4 Bft) 100,00 %
27.11.2016 11:48 6,3 C 88 % 1015,1 hPa 0,0 l/m 10,3 km/h (2 Bft) W-SW 253 0 min 0,000 mm 0,0 UV-I 25 W/m 4,5 C 3,3 C 17,7 km/h (3 Bft) 100,00 %
27.11.2016 11:50 6,3 C 88 % 1015,1 hPa 0,0 l/m 10,0 km/h (2 Bft) W-SW 257 0 min 0,000 mm 0,0 UV-I 24 W/m 4,5 C 3,5 C 22,5 km/h (4 Bft) 100,00 %
27.11.2016 11:52 6,3 C 88 % 1015,1 hPa 0,0 l/m 9,7 km/h (2 Bft) W 267 0 min 0,000 mm 0,0 UV-I 25 W/m 4,5 C 3,7 C 16,1 km/h (3 Bft) 96,00 %
27.11.2016 11:54 6,3 C 88 % 1015,1 hPa 0,0 l/m 9,7 km/h (2 Bft) W 261 0 min 0,000 mm 0,0 UV-I 25 W/m 4,5 C 3,7 C 16,1 km/h (3 Bft) 100,00 %
27.11.2016 11:56 6,3 C 88 % 1015,1 hPa 0,0 l/m 9,9 km/h (2 Bft) W 267 0 min 0,000 mm 0,0 UV-I 25 W/m 4,5 C 3,6 C 16,1 km/h (3 Bft) 100,00 %
27.11.2016 11:58 6,3 C 88 % 1015,1 hPa 0,0 l/m 8,2 km/h (2 Bft) W 277 0 min 0,000 mm 0,0 UV-I 28 W/m 4,5 C 4,8 C 16,1 km/h (3 Bft) 100,00 %
27.11.2016 12:00 6,3 C 88 % 1015,1 hPa 0,0 l/m 10,7 km/h (2 Bft) W 269 0 min 0,025 mm 0,0 UV-I 32 W/m 4,5 C 3,0 C 17,7 km/h (3 Bft) 100,00 %
27.11.2016 12:02 6,3 C 89 % 1015,1 hPa 0,0 l/m 9,1 km/h (2 Bft) W 273 0 min 0,000 mm 0,0 UV-I 33 W/m 4,6 C 4,1 C 12,9 km/h (3 Bft) 100,00 %
27.11.2016 12:04 6,3 C 88 % 1015,1 hPa 0,0 l/m 9,2 km/h (2 Bft) W-NW 301 0 min 0,000 mm 0,0 UV-I 33 W/m 4,5 C 4,1 C 20,9 km/h (4 Bft) 97,87 %
27.11.2016 12:06 6,3 C 88 % 1015,0 hPa 0,0 l/m 8,8 km/h (2 Bft) W-NW 285 0 min 0,000 mm 0,0 UV-I 32 W/m 4,5 C 4,4 C 12,9 km/h (3 Bft) 100,00 %
27.11.2016 12:08 6,3 C 88 % 1015,0 hPa 0,0 l/m 8,3 km/h (2 Bft) W 263 0 min 0,000 mm 0,0 UV-I 30 W/m 4,5 C 4,7 C 14,5 km/h (3 Bft) 100,00 %
27.11.2016 12:10 6,3 C 88 % 1015,0 hPa 0,0 l/m 11,8 km/h (2 Bft) W 267 0 min 0,000 mm 0,0 UV-I 29 W/m 4,5 C 2,4 C 20,9 km/h (4 Bft) 95,74 %
27.11.2016 12:12 6,3 C 88 % 1015,0 hPa 0,0 l/m 12,3 km/h (3 Bft) W 273 0 min 0,000 mm 0,0 UV-I 29 W/m 4,5 C 2,1 C 19,3 km/h (3 Bft) 98,00 %
27.11.2016 12:14 6,3 C 88 % 1015,1 hPa 0,0 l/m 7,9 km/h (2 Bft) W-NW 288 0 min 0,000 mm 0,0 UV-I 31 W/m 4,5 C 5,0 C 12,9 km/h (3 Bft) 100,00 %
27.11.2016 12:16 6,3 C 88 % 1015,1 hPa 0,0 l/m 10,4 km/h (2 Bft) W 274 0 min 0,000 mm 0,0 UV-I 32 W/m 4,5 C 3,2 C 20,9 km/h (4 Bft) 100,00 %
27.11.2016 12:18 6,3 C 88 % 1015,1 hPa 0,0 l/m 8,5 km/h (2 Bft) W 264 0 min 0,000 mm 0,0 UV-I 31 W/m 4,5 C 4,6 C 14,5 km/h (3 Bft) 100,00 %
27.11.2016 12:20 6,3 C 88 % 1015,1 hPa 0,0 l/m 8,8 km/h (2 Bft) W 269 0 min 0,000 mm 0,0 UV-I 29 W/m 4,5 C 4,4 C 14,5 km/h (3 Bft) 100,00 %
27.11.2016 12:22 6,3 C 88 % 1015,1 hPa 0,0 l/m 12,4 km/h (3 Bft) W-SW 247 0 min 0,000 mm 0,0 UV-I 32 W/m 4,5 C 2,0 C 17,7 km/h (3 Bft) 98,00 %
27.11.2016 12:24 6,3 C 88 % 1015,0 hPa 0,0 l/m 11,4 km/h (2 Bft) W 263 0 min 0,000 mm 0,0 UV-I 36 W/m 4,5 C 2,6 C 16,1 km/h (3 Bft) 100,00 %
27.11.2016 12:26 6,3 C 88 % 1015,0 hPa 0,0 l/m 11,4 km/h (2 Bft) W-SW 254 0 min 0,000 mm 0,0 UV-I 37 W/m 4,5 C 2,6 C 19,3 km/h (3 Bft) 100,00 %
27.11.2016 12:28 6,3 C 88 % 1015,0 hPa 0,0 l/m 10,8 km/h (2 Bft) W 266 0 min 0,000 mm 0,0 UV-I 37 W/m 4,5 C 3,0 C 19,3 km/h (3 Bft) 100,00 %
27.11.2016 12:30 6,3 C 88 % 1014,9 hPa 0,0 l/m 11,6 km/h (2 Bft) W 275 0 min 0,000 mm 0,0 UV-I 36 W/m 4,5 C 2,5 C 16,1 km/h (3 Bft) 95,45 %
27.11.2016 12:32 6,3 C 88 % 1015,0 hPa 0,0 l/m 12,7 km/h (3 Bft) W-SW 254 0 min 0,000 mm 0,0 UV-I 32 W/m 4,5 C 1,9 C 19,3 km/h (3 Bft) 100,00 %
27.11.2016 12:34 6,3 C 88 % 1015,0 hPa 0,0 l/m 11,2 km/h (2 Bft) SW 224 0 min 0,000 mm 0,0 UV-I 28 W/m 4,5 C 2,7 C 22,5 km/h (4 Bft) 96,15 %
27.11.2016 12:36 6,3 C 87 % 1014,9 hPa 0,0 l/m 14,5 km/h (3 Bft) W 262 0 min 0,000 mm 0,0 UV-I 25 W/m 4,3 C 0,9 C 19,3 km/h (3 Bft) 100,00 %
27.11.2016 12:38 6,3 C 87 % 1014,9 hPa 0,0 l/m 9,9 km/h (2 Bft) W 264 0 min 0,000 mm 0,0 UV-I 26 W/m 4,3 C 3,6 C 14,5 km/h (3 Bft) 98,00 %
27.11.2016 12:40 6,3 C 87 % 1014,9 hPa 0,0 l/m 10,6 km/h (2 Bft) W-SW 243 0 min 0,000 mm 0,0 UV-I 30 W/m 4,3 C 3,1 C 16,1 km/h (3 Bft) 100,00 %
27.11.2016 12:42 6,3 C 87 % 1014,7 hPa 0,0 l/m 13,0 km/h (3 Bft) W-SW 258 0 min 0,000 mm 0,0 UV-I 37 W/m 4,3 C 1,7 C 17,7 km/h (3 Bft) 100,00 %
27.11.2016 12:44 6,3 C 87 % 1014,7 hPa 0,0 l/m 11,7 km/h (2 Bft) W-SW 250 0 min 0,000 mm 0,0 UV-I 50 W/m 4,3 C 2,4 C 17,7 km/h (3 Bft) 100,00 %
27.11.2016 12:46 6,3 C 87 % 1014,7 hPa 0,0 l/m 10,7 km/h (2 Bft) W-NW 302 0 min 0,000 mm 0,0 UV-I 57 W/m 4,3 C 3,0 C 17,7 km/h (3 Bft) 100,00 %
27.11.2016 12:48 6,4 C 87 % 1014,6 hPa 0,0 l/m 10,5 km/h (2 Bft) W-SW 256 0 min 0,000 mm 0,0 UV-I 54 W/m 4,4 C 3,3 C 16,1 km/h (3 Bft) 100,00 %
27.11.2016 12:50 6,4 C 87 % 1014,6 hPa 0,0 l/m 11,9 km/h (2 Bft) W 261 0 min 0,000 mm 0,0 UV-I 50 W/m 4,4 C 2,4 C 17,7 km/h (3 Bft) 100,00 %
27.11.2016 12:52 6,4 C 87 % 1014,6 hPa 0,0 l/m 9,4 km/h (2 Bft) W 274 0 min 0,000 mm 0,0 UV-I 52 W/m 4,4 C 4,0 C 16,1 km/h (3 Bft) 100,00 %
27.11.2016 12:54 6,4 C 87 % 1014,5 hPa 0,0 l/m 15,3 km/h (3 Bft) W-SW 237 0 min 0,000 mm 0,0 UV-I 65 W/m 4,4 C 0,6 C 22,5 km/h (4 Bft) 96,15 %
27.11.2016 12:56 6,4 C 87 % 1014,5 hPa 0,0 l/m 13,5 km/h (3 Bft) W-SW 251 0 min 0,000 mm 0,0 UV-I 89 W/m 4,4 C 1,5 C 20,9 km/h (4 Bft) 98,59 %
27.11.2016 12:58 6,4 C 86 % 1014,5 hPa 0,0 l/m 14,6 km/h (3 Bft) W-SW 251 0 min 0,000 mm 0,0 UV-I 86 W/m 4,2 C 1,0 C 22,5 km/h (4 Bft) 97,56 %
27.11.2016 13:00 6,4 C 86 % 1014,5 hPa 0,0 l/m 11,9 km/h (2 Bft) W 263 0 min 0,025 mm 0,0 UV-I 95 W/m 4,2 C 2,4 C 16,1 km/h (3 Bft) 98,11 %
27.11.2016 13:02 6,5 C 86 % 1014,5 hPa 0,0 l/m 12,7 km/h (3 Bft) W 259 0 min 0,000 mm 0,0 UV-I 112 W/m 4,3 C 2,1 C 16,1 km/h (3 Bft) 97,56 %
27.11.2016 13:04 6,6 C 86 % 1014,5 hPa 0,0 l/m 8,7 km/h (2 Bft) W-SW 254 0 min 0,000 mm 0,0 UV-I 132 W/m 4,4 C 4,8 C 11,3 km/h (2 Bft) 97,56 %
27.11.2016 13:06 6,6 C 86 % 1014,5 hPa 0,0 l/m 9,4 km/h (2 Bft) W 266 0 min 0,000 mm 0,5 UV-I 150 W/m 4,4 C 4,2 C 14,5 km/h (3 Bft) 98,15 %
27.11.2016 13:08 6,7 C 86 % 1014,5 hPa 0,0 l/m 12,4 km/h (3 Bft) S-SW 205 0 min 0,000 mm 0,4 UV-I 135 W/m 4,5 C 2,5 C 16,1 km/h (3 Bft) 94,00 %
27.11.2016 13:10 6,7 C 85 % 1014,5 hPa 0,0 l/m 15,4 km/h (3 Bft) W 261 0 min 0,000 mm 0,0 UV-I 109 W/m 4,4 C 0,9 C 22,5 km/h (4 Bft) 97,73 %
27.11.2016 13:12 6,7 C 85 % 1014,5 hPa 0,0 l/m 12,1 km/h (2 Bft) W-SW 257 0 min 0,000 mm 0,0 UV-I 81 W/m 4,4 C 2,7 C 20,9 km/h (4 Bft) 96,00 %
27.11.2016 13:14 6,7 C 85 % 1014,5 hPa 0,0 l/m 15,2 km/h (3 Bft) W-SW 241 0 min 0,000 mm 0,0 UV-I 67 W/m 4,4 C 1,0 C 22,5 km/h (4 Bft) 97,44 %
27.11.2016 13:16 6,7 C 85 % 1014,6 hPa 0,0 l/m 12,9 km/h (3 Bft) W 260 0 min 0,000 mm 0,0 UV-I 63 W/m 4,4 C 2,2 C 17,7 km/h (3 Bft) 94,74 %
27.11.2016 13:18 6,7 C 85 % 1014,6 hPa 0,0 l/m 11,9 km/h (2 Bft) W-SW 252 0 min 0,000 mm 0,0 UV-I 71 W/m 4,4 C 2,8 C 17,7 km/h (3 Bft) 96,92 %
27.11.2016 13:20 6,7 C 85 % 1014,5 hPa 0,0 l/m 11,1 km/h (2 Bft) W-SW 258 0 min 0,000 mm 0,0 UV-I 74 W/m 4,4 C 3,2 C 17,7 km/h (3 Bft) 97,56 %
27.11.2016 13:22 6,7 C 85 % 1014,5 hPa 0,0 l/m 9,2 km/h (2 Bft) W-SW 256 0 min 0,000 mm 0,0 UV-I 78 W/m 4,4 C 4,5 C 16,1 km/h (3 Bft) 96,00 %
27.11.2016 13:24 6,7 C 85 % 1014,5 hPa 0,0 l/m 6,9 km/h (2 Bft) W-SW 240 0 min 0,000 mm 0,0 UV-I 78 W/m 4,4 C 6,3 C 12,9 km/h (3 Bft) 97,56 %
27.11.2016 13:26 6,7 C 85 % 1014,5 hPa 0,0 l/m 9,0 km/h (2 Bft) W 270 0 min 0,000 mm 0,0 UV-I 76 W/m 4,4 C 4,6 C 17,7 km/h (3 Bft) 95,74 %
27.11.2016 13:28 6,7 C 85 % 1014,4 hPa 0,0 l/m 11,7 km/h (2 Bft) W-SW 252 0 min 0,000 mm 0,0 UV-I 68 W/m 4,4 C 2,9 C 19,3 km/h (3 Bft) 98,11 %
27.11.2016 13:30 6,7 C 85 % 1014,4 hPa 0,0 l/m 8,4 km/h (2 Bft) W-SW 254 0 min 0,000 mm 0,0 UV-I 57 W/m 4,4 C 5,1 C 17,7 km/h (3 Bft) 97,56 %
27.11.2016 13:32 6,7 C 86 % 1014,4 hPa 0,0 l/m 9,1 km/h (2 Bft) N 360 0 min 0,000 mm 0,0 UV-I 59 W/m 4,5 C 4,6 C 14,5 km/h (3 Bft) 100,00 %
27.11.2016 13:34 6,7 C 85 % 1014,4 hPa 0,0 l/m 15,2 km/h (3 Bft) W-SW 257 0 min 0,000 mm 0,0 UV-I 51 W/m 4,4 C 1,0 C 20,9 km/h (4 Bft) 100,00 %
27.11.2016 13:36 6,6 C 85 % 1014,4 hPa 0,0 l/m 11,9 km/h (2 Bft) W 278 0 min 0,000 mm 0,0 UV-I 48 W/m 4,3 C 2,7 C 16,1 km/h (3 Bft) 98,00 %
27.11.2016 13:38 6,6 C 85 % 1014,4 hPa 0,0 l/m 12,5 km/h (3 Bft) W 267 0 min 0,000 mm 0,0 UV-I 58 W/m 4,3 C 2,3 C 20,9 km/h (4 Bft) 95,74 %
27.11.2016 13:40 6,6 C 85 % 1014,3 hPa 0,0 l/m 13,1 km/h (3 Bft) W 270 0 min 0,000 mm 0,0 UV-I 52 W/m 4,3 C 2,0 C 19,3 km/h (3 Bft) 100,00 %
27.11.2016 13:42 6,6 C 85 % 1014,4 hPa 0,0 l/m 11,2 km/h (2 Bft) W-SW 256 0 min 0,000 mm 0,0 UV-I 57 W/m 4,3 C 3,1 C 19,3 km/h (3 Bft) 100,00 %
27.11.2016 13:44 6,6 C 85 % 1014,5 hPa 0,0 l/m 8,9 km/h (2 Bft) W 262 0 min 0,000 mm 0,0 UV-I 62 W/m 4,3 C 4,6 C 12,9 km/h (3 Bft) 100,00 %
27.11.2016 13:46 6,6 C 86 % 1014,5 hPa 0,0 l/m 8,7 km/h (2 Bft) W-NW 283 0 min 0,000 mm 0,0 UV-I 53 W/m 4,4 C 4,8 C 14,5 km/h (3 Bft) 96,23 %
27.11.2016 13:48 6,6 C 86 % 1014,4 hPa 0,0 l/m 9,0 km/h (2 Bft) W-SW 257 0 min 0,000 mm 0,0 UV-I 47 W/m 4,4 C 4,5 C 14,5 km/h (3 Bft) 100,00 %
27.11.2016 13:50 6,6 C 86 % 1014,4 hPa 0,0 l/m 8,8 km/h (2 Bft) W-NW 288 0 min 0,000 mm 0,0 UV-I 45 W/m 4,4 C 4,7 C 14,5 km/h (3 Bft) 100,00 %
27.11.2016 13:52 6,6 C 86 % 1014,4 hPa 0,0 l/m 6,1 km/h (2 Bft) W 263 0 min 0,000 mm 0,0 UV-I 41 W/m 4,4 C 6,6 C 11,3 km/h (2 Bft) 98,00 %
27.11.2016 13:54 6,6 C 86 % 1014,4 hPa 0,0 l/m 9,3 km/h (2 Bft) W-NW 289 0 min 0,000 mm 0,0 UV-I 37 W/m 4,4 C 4,3 C 16,1 km/h (3 Bft) 97,22 %
27.11.2016 13:56 6,6 C 86 % 1014,4 hPa 0,0 l/m 9,2 km/h (2 Bft) W-SW 257 0 min 0,000 mm 0,0 UV-I 46 W/m 4,4 C 4,4 C 17,7 km/h (3 Bft) 100,00 %
27.11.2016 13:58 6,6 C 85 % 1014,4 hPa 0,0 l/m 11,8 km/h (2 Bft) W-SW 242 0 min 0,000 mm 0,0 UV-I 55 W/m 4,3 C 2,7 C 17,7 km/h (3 Bft) 97,56 %
27.11.2016 14:00 6,6 C 85 % 1014,3 hPa 0,0 l/m 17,3 km/h (3 Bft) W-NW 284 0 min 0,000 mm 0,0 UV-I 63 W/m 4,3 C -0,0 C 24,1 km/h (4 Bft) 100,00 %
27.11.2016 14:02 6,6 C 84 % 1014,4 hPa 0,0 l/m 14,3 km/h (3 Bft) W 259 0 min 0,051 mm 0,0 UV-I 65 W/m 4,1 C 1,4 C 22,5 km/h (4 Bft) 100,00 %
27.11.2016 14:04 6,6 C 84 % 1014,4 hPa 0,0 l/m 12,4 km/h (3 Bft) W 262 0 min 0,000 mm 0,0 UV-I 63 W/m 4,1 C 2,4 C 17,7 km/h (3 Bft) 100,00 %
27.11.2016 14:06 6,6 C 84 % 1014,5 hPa 0,0 l/m 6,6 km/h (2 Bft) W-NW 282 0 min 0,000 mm 0,0 UV-I 63 W/m 4,1 C 6,5 C 11,3 km/h (2 Bft) 100,00 %
27.11.2016 14:08 6,6 C 84 % 1014,4 hPa 0,0 l/m 11,0 km/h (2 Bft) W 270 0 min 0,000 mm 0,0 UV-I 66 W/m 4,1 C 3,2 C 19,3 km/h (3 Bft) 100,00 %
27.11.2016 14:10 6,6 C 84 % 1014,4 hPa 0,0 l/m 9,5 km/h (2 Bft) S-SW 213 0 min 0,000 mm 0,0 UV-I 63 W/m 4,1 C 4,2 C 12,9 km/h (3 Bft) 100,00 %
27.11.2016 14:12 6,5 C 84 % 1014,4 hPa 0,0 l/m 11,2 km/h (2 Bft) W-SW 244 0 min 0,000 mm 0,0 UV-I 49 W/m 4,0 C 3,0 C 19,3 km/h (3 Bft) 96,23 %
27.11.2016 14:14 6,4 C 84 % 1014,4 hPa 0,0 l/m 12,1 km/h (2 Bft) W-SW 246 0 min 0,000 mm 0,0 UV-I 44 W/m 3,9 C 2,3 C 19,3 km/h (3 Bft) 100,00 %
27.11.2016 14:16 6,4 C 84 % 1014,2 hPa 0,0 l/m 15,2 km/h (3 Bft) SW 234 0 min 0,000 mm 0,0 UV-I 54 W/m 3,9 C 0,7 C 20,9 km/h (4 Bft) 100,00 %
27.11.2016 14:18 6,4 C 83 % 1014,2 hPa 0,0 l/m 14,0 km/h (3 Bft) W-SW 239 0 min 0,000 mm 0,0 UV-I 61 W/m 3,7 C 1,3 C 20,9 km/h (4 Bft) 98,21 %
27.11.2016 14:20 6,4 C 84 % 1014,3 hPa 0,0 l/m 14,8 km/h (3 Bft) W-SW 246 0 min 0,000 mm 0,0 UV-I 73 W/m 3,9 C 0,9 C 19,3 km/h (3 Bft) 100,00 %
27.11.2016 14:22 6,4 C 84 % 1014,2 hPa 0,2 l/m 15,0 km/h (3 Bft) W 267 0 min 0,000 mm 0,0 UV-I 77 W/m 3,9 C 0,8 C 25,7 km/h (4 Bft) 100,00 %
27.11.2016 14:24 6,5 C 84 % 1014,2 hPa 0,0 l/m 15,1 km/h (3 Bft) SW 222 0 min 0,000 mm 0,0 UV-I 73 W/m 4,0 C 0,8 C 20,9 km/h (4 Bft) 100,00 %
27.11.2016 14:26 6,5 C 84 % 1014,2 hPa 0,0 l/m 13,6 km/h (3 Bft) W-SW 240 0 min 0,000 mm 0,0 UV-I 68 W/m 4,0 C 1,6 C 20,9 km/h (4 Bft) 100,00 %
27.11.2016 14:28 6,5 C 84 % 1014,3 hPa 0,0 l/m 11,2 km/h (2 Bft) W 271 0 min 0,000 mm 0,0 UV-I 65 W/m 4,0 C 3,0 C 19,3 km/h (3 Bft) 100,00 %
27.11.2016 14:30 6,6 C 84 % 1014,3 hPa 0,0 l/m 13,7 km/h (3 Bft) W-SW 250 0 min 0,000 mm 0,0 UV-I 65 W/m 4,1 C 1,7 C 25,7 km/h (4 Bft) 95,45 %
27.11.2016 14:32 6,6 C 84 % 1014,3 hPa 0,0 l/m 13,5 km/h (3 Bft) W-SW 256 0 min 0,000 mm 0,0 UV-I 70 W/m 4,1 C 1,8 C 29,0 km/h (5 Bft) 100,00 %
27.11.2016 14:34 6,6 C 84 % 1014,3 hPa 0,0 l/m 12,0 km/h (2 Bft) W-SW 247 0 min 0,000 mm 0,0 UV-I 67 W/m 4,1 C 2,6 C 22,5 km/h (4 Bft) 100,00 %
27.11.2016 14:36 6,6 C 84 % 1014,3 hPa 0,0 l/m 15,2 km/h (3 Bft) W-SW 252 0 min 0,000 mm 0,0 UV-I 50 W/m 4,1 C 0,9 C 22,5 km/h (4 Bft) 100,00 %
27.11.2016 14:38 6,6 C 83 % 1014,3 hPa 0,0 l/m 12,7 km/h (3 Bft) W 276 0 min 0,000 mm 0,0 UV-I 49 W/m 3,9 C 2,2 C 19,3 km/h (3 Bft) 97,73 %
27.11.2016 14:40 6,6 C 83 % 1014,3 hPa 0,0 l/m 9,4 km/h (2 Bft) W 259 0 min 0,000 mm 0,0 UV-I 53 W/m 3,9 C 4,2 C 16,1 km/h (3 Bft) 100,00 %
27.11.2016 14:42 6,6 C 84 % 1014,3 hPa 0,0 l/m 9,4 km/h (2 Bft) W-SW 250 0 min 0,000 mm 0,0 UV-I 51 W/m 4,1 C 4,2 C 16,1 km/h (3 Bft) 97,56 %
27.11.2016 14:44 6,6 C 84 % 1014,3 hPa 0,0 l/m 11,4 km/h (2 Bft) W-SW 247 0 min 0,000 mm 0,0 UV-I 48 W/m 4,1 C 3,0 C 20,9 km/h (4 Bft) 100,00 %
27.11.2016 14:46 6,5 C 83 % 1014,3 hPa 0,0 l/m 10,7 km/h (2 Bft) W 259 0 min 0,000 mm 0,0 UV-I 45 W/m 3,8 C 3,3 C 19,3 km/h (3 Bft) 100,00 %
27.11.2016 14:48 6,5 C 83 % 1014,4 hPa 0,0 l/m 13,6 km/h (3 Bft) W-SW 254 0 min 0,000 mm 0,0 UV-I 36 W/m 3,8 C 1,6 C 17,7 km/h (3 Bft) 100,00 %
27.11.2016 14:50 6,5 C 83 % 1014,4 hPa 0,0 l/m 13,2 km/h (3 Bft) W-SW 248 0 min 0,000 mm 0,0 UV-I 33 W/m 3,8 C 1,8 C 17,7 km/h (3 Bft) 98,11 %
27.11.2016 14:52 6,5 C 83 % 1014,3 hPa 0,0 l/m 13,3 km/h (3 Bft) N 355 0 min 0,000 mm 0,0 UV-I 32 W/m 3,8 C 1,8 C 20,9 km/h (4 Bft) 100,00 %
27.11.2016 14:54 6,5 C 83 % 1014,4 hPa 0,0 l/m 9,4 km/h (2 Bft) SW 235 0 min 0,000 mm 0,0 UV-I 28 W/m 3,8 C 4,1 C 14,5 km/h (3 Bft) 98,31 %
27.11.2016 14:56 6,4 C 83 % 1014,4 hPa 0,0 l/m 11,0 km/h (2 Bft) W-SW 257 0 min 0,000 mm 0,0 UV-I 26 W/m 3,7 C 3,0 C 19,3 km/h (3 Bft) 95,12 %
27.11.2016 14:58 6,5 C 83 % 1014,4 hPa 0,0 l/m 13,4 km/h (3 Bft) W-SW 252 0 min 0,000 mm 0,0 UV-I 27 W/m 3,8 C 1,7 C 17,7 km/h (3 Bft) 98,11 %
27.11.2016 15:00 6,4 C 83 % 1014,4 hPa 0,0 l/m 15,1 km/h (3 Bft) W 263 0 min 0,051 mm 0,0 UV-I 26 W/m 3,7 C 0,7 C 20,9 km/h (4 Bft) 97,56 %
27.11.2016 15:02 6,4 C 83 % 1014,4 hPa 0,0 l/m 9,7 km/h (2 Bft) W 263 0 min 0,000 mm 0,0 UV-I 23 W/m 3,7 C 3,8 C 16,1 km/h (3 Bft) 96,00 %
27.11.2016 15:04 6,4 C 84 % 1014,4 hPa 0,0 l/m 13,5 km/h (3 Bft) W 259 0 min 0,000 mm 0,0 UV-I 21 W/m 3,9 C 1,5 C 19,3 km/h (3 Bft) 96,00 %
27.11.2016 15:06 6,4 C 84 % 1014,4 hPa 0,0 l/m 10,6 km/h (2 Bft) W 265 0 min 0,000 mm 0,0 UV-I 21 W/m 3,9 C 3,2 C 16,1 km/h (3 Bft) 97,87 %
27.11.2016 15:08 6,4 C 84 % 1014,5 hPa 0,0 l/m 9,1 km/h (2 Bft) W 261 0 min 0,000 mm 0,0 UV-I 20 W/m 3,9 C 4,2 C 14,5 km/h (3 Bft) 97,37 %
27.11.2016 15:10 6,4 C 84 % 1014,4 hPa 0,0 l/m 11,5 km/h (2 Bft) W-SW 253 0 min 0,000 mm 0,0 UV-I 18 W/m 3,9 C 2,7 C 16,1 km/h (3 Bft) 98,00 %
27.11.2016 15:12 6,4 C 84 % 1014,5 hPa 0,0 l/m 13,1 km/h (3 Bft) W-SW 254 0 min 0,000 mm 0,0 UV-I 18 W/m 3,9 C 1,7 C 19,3 km/h (3 Bft) 97,62 %
27.11.2016 15:14 6,4 C 84 % 1014,5 hPa 0,0 l/m 11,7 km/h (2 Bft) SW 226 0 min 0,000 mm 0,0 UV-I 16 W/m 3,9 C 2,5 C 17,7 km/h (3 Bft) 98,21 %
27.11.2016 15:16 6,4 C 84 % 1014,6 hPa 0,0 l/m 10,4 km/h (2 Bft) W-SW 240 0 min 0,000 mm 0,0 UV-I 14 W/m 3,9 C 3,4 C 16,1 km/h (3 Bft) 94,74 %
27.11.2016 15:18 6,4 C 84 % 1014,5 hPa 0,0 l/m 10,2 km/h (2 Bft) W 261 0 min 0,000 mm 0,0 UV-I 13 W/m 3,9 C 3,5 C 17,7 km/h (3 Bft) 92,00 %
27.11.2016 15:20 6,4 C 85 % 1014,6 hPa 0,0 l/m 9,9 km/h (2 Bft) W-SW 258 0 min 0,000 mm 0,0 UV-I 13 W/m 4,1 C 3,7 C 14,5 km/h (3 Bft) 95,74 %
27.11.2016 15:22 6,4 C 85 % 1014,6 hPa 0,0 l/m 9,1 km/h (2 Bft) W-SW 254 0 min 0,000 mm 0,0 UV-I 12 W/m 4,1 C 4,2 C 14,5 km/h (3 Bft) 93,62 %
27.11.2016 15:24 6,4 C 85 % 1014,6 hPa 0,0 l/m 8,3 km/h (2 Bft) W 267 0 min 0,000 mm 0,0 UV-I 12 W/m 4,1 C 4,8 C 14,5 km/h (3 Bft) 96,00 %
27.11.2016 15:26 6,3 C 85 % 1014,5 hPa 0,0 l/m 10,1 km/h (2 Bft) W 266 0 min 0,000 mm 0,0 UV-I 11 W/m 4,0 C 3,4 C 16,1 km/h (3 Bft) 98,00 %
27.11.2016 15:28 6,3 C 85 % 1014,5 hPa 0,0 l/m 11,7 km/h (2 Bft) W-SW 253 0 min 0,000 mm 0,0 UV-I 11 W/m 4,0 C 2,4 C 16,1 km/h (3 Bft) 97,56 %
27.11.2016 15:30 6,3 C 85 % 1014,5 hPa 0,0 l/m 10,9 km/h (2 Bft) SW 221 0 min 0,000 mm 0,0 UV-I 11 W/m 4,0 C 2,9 C 16,1 km/h (3 Bft) 95,45 %
27.11.2016 15:32 6,3 C 85 % 1014,5 hPa 0,0 l/m 10,5 km/h (2 Bft) W 271 0 min 0,000 mm 0,0 UV-I 11 W/m 4,0 C 3,2 C 16,1 km/h (3 Bft) 96,00 %
27.11.2016 15:34 6,3 C 85 % 1014,5 hPa 0,0 l/m 11,0 km/h (2 Bft) W 262 0 min 0,000 mm 0,0 UV-I 10 W/m 4,0 C 2,9 C 14,5 km/h (3 Bft) 96,00 %
27.11.2016 15:36 6,3 C 85 % 1014,5 hPa 0,0 l/m 8,5 km/h (2 Bft) W-SW 247 0 min 0,000 mm 0,0 UV-I 9 W/m 4,0 C 4,6 C 14,5 km/h (3 Bft) 100,00 %
27.11.2016 15:38 6,3 C 85 % 1014,5 hPa 0,0 l/m 6,4 km/h (2 Bft) W 265 0 min 0,000 mm 0,0 UV-I 10 W/m 4,0 C 6,3 C 11,3 km/h (2 Bft) 100,00 %
27.11.2016 15:40 6,3 C 85 % 1014,5 hPa 0,0 l/m 6,0 km/h (2 Bft) W-SW 257 0 min 0,000 mm 0,0 UV-I 11 W/m 4,0 C 6,3 C 11,3 km/h (2 Bft) 98,00 %
27.11.2016 15:42 6,3 C 85 % 1014,6 hPa 0,0 l/m 6,7 km/h (2 Bft) W 259 0 min 0,000 mm 0,0 UV-I 9 W/m 4,0 C 6,1 C 11,3 km/h (2 Bft) 97,56 %
27.11.2016 15:44 6,3 C 85 % 1014,7 hPa 0,0 l/m 5,5 km/h (1 Bft) SW 230 0 min 0,000 mm 0,0 UV-I 9 W/m 4,0 C 6,3 C 8,0 km/h (2 Bft) 98,04 %
27.11.2016 15:46 6,3 C 85 % 1014,6 hPa 0,0 l/m 4,8 km/h (1 Bft) W 272 0 min 0,000 mm 0,0 UV-I 9 W/m 4,0 C 6,3 C 6,4 km/h (2 Bft) 100,00 %
27.11.2016 15:48 6,3 C 85 % 1014,6 hPa 0,0 l/m 7,4 km/h (2 Bft) W-SW 243 0 min 0,000 mm 0,0 UV-I 7 W/m 4,0 C 5,5 C 12,9 km/h (3 Bft) 98,00 %
27.11.2016 15:50 6,3 C 85 % 1014,6 hPa 0,0 l/m 5,8 km/h (2 Bft) W 267 0 min 0,000 mm 0,0 UV-I 7 W/m 4,0 C 6,3 C 9,7 km/h (2 Bft) 100,00 %
27.11.2016 15:52 6,3 C 85 % 1014,6 hPa 0,0 l/m 5,6 km/h (1 Bft) W 266 0 min 0,000 mm 0,0 UV-I 7 W/m 4,0 C 6,3 C 8,0 km/h (2 Bft) 100,00 %
27.11.2016 15:54 6,3 C 85 % 1014,6 hPa 0,0 l/m 5,2 km/h (1 Bft) W-SW 252 0 min 0,000 mm 0,0 UV-I 7 W/m 4,0 C 6,3 C 11,3 km/h (2 Bft) 100,00 %
27.11.2016 15:56 6,3 C 86 % 1014,6 hPa 0,0 l/m 7,7 km/h (2 Bft) W-SW 252 0 min 0,000 mm 0,0 UV-I 7 W/m 4,1 C 5,2 C 14,5 km/h (3 Bft) 98,80 %
27.11.2016 15:58 6,3 C 85 % 1014,6 hPa 0,0 l/m 8,3 km/h (2 Bft) W-NW 290 0 min 0,000 mm 0,0 UV-I 7 W/m 4,0 C 4,7 C 12,9 km/h (3 Bft) 97,56 %
27.11.2016 16:00 6,3 C 86 % 1014,7 hPa 0,0 l/m 5,8 km/h (2 Bft) W 264 0 min 0,000 mm 0,0 UV-I 5 W/m 4,1 C 6,3 C 12,9 km/h (3 Bft) 100,00 %
27.11.2016 16:02 6,2 C 86 % 1014,6 hPa 0,0 l/m 7,6 km/h (2 Bft) W-NW 282 0 min 0,025 mm 0,0 UV-I 5 W/m 4,0 C 5,2 C 11,3 km/h (2 Bft) 100,00 %
27.11.2016 16:04 6,3 C 86 % 1014,7 hPa 0,0 l/m 7,9 km/h (2 Bft) W-NW 290 0 min 0,000 mm 0,0 UV-I 5 W/m 4,1 C 5,0 C 12,9 km/h (3 Bft) 100,00 %
27.11.2016 16:06 6,2 C 86 % 1014,7 hPa 0,0 l/m 4,3 km/h (1 Bft) W-NW 302 0 min 0,000 mm 0,0 UV-I 5 W/m 4,0 C 6,2 C 11,3 km/h (2 Bft) 100,00 %
27.11.2016 16:08 6,2 C 86 % 1014,7 hPa 0,0 l/m 4,1 km/h (1 Bft) W 275 0 min 0,000 mm 0,0 UV-I 5 W/m 4,0 C 6,2 C 11,3 km/h (2 Bft) 97,87 %
27.11.2016 16:10 6,2 C 86 % 1014,7 hPa 0,0 l/m 2,7 km/h (1 Bft) W 273 0 min 0,000 mm 0,0 UV-I 2 W/m 4,0 C 6,2 C 6,4 km/h (2 Bft) 97,56 %
27.11.2016 16:12 6,2 C 86 % 1014,7 hPa 0,0 l/m 3,7 km/h (1 Bft) W-NW 286 0 min 0,000 mm 0,0 UV-I 0 W/m 4,0 C 6,2 C 9,7 km/h (2 Bft) 100,00 %
27.11.2016 16:14 6,2 C 87 % 1014,8 hPa 0,0 l/m 4,4 km/h (1 Bft) NW 304 0 min 0,000 mm 0,0 UV-I 0 W/m 4,2 C 6,2 C 6,4 km/h (2 Bft) 100,00 %
27.11.2016 16:16 6,1 C 87 % 1014,9 hPa 0,0 l/m 7,5 km/h (2 Bft) W-NW 283 0 min 0,000 mm 0,0 UV-I 0 W/m 4,1 C 5,2 C 16,1 km/h (3 Bft) 98,11 %
27.11.2016 16:18 6,1 C 88 % 1014,9 hPa 0,0 l/m 8,0 km/h (2 Bft) W-SW 255 0 min 0,000 mm 0,0 UV-I 0 W/m 4,3 C 4,8 C 22,5 km/h (4 Bft) 97,87 %
27.11.2016 16:20 6,0 C 89 % 1014,8 hPa 0,0 l/m 6,7 km/h (2 Bft) W 269 0 min 0,000 mm 0,0 UV-I 0 W/m 4,3 C 5,8 C 20,9 km/h (4 Bft) 100,00 %
27.11.2016 16:22 5,9 C 89 % 1014,9 hPa 0,0 l/m 8,6 km/h (2 Bft) W 281 0 min 0,000 mm 0,0 UV-I 0 W/m 4,2 C 4,1 C 16,1 km/h (3 Bft) 97,73 %
27.11.2016 16:24 5,8 C 89 % 1014,9 hPa 0,0 l/m 7,4 km/h (2 Bft) NW 307 0 min 0,000 mm 0,0 UV-I 0 W/m 4,1 C 4,9 C 16,1 km/h (3 Bft) 97,44 %
27.11.2016 16:26 5,8 C 90 % 1014,9 hPa 0,0 l/m 7,6 km/h (2 Bft) W 272 0 min 0,000 mm 0,0 UV-I 0 W/m 4,3 C 4,8 C 16,1 km/h (3 Bft) 98,44 %
27.11.2016 16:28 5,7 C 90 % 1014,9 hPa 0,0 l/m 8,8 km/h (2 Bft) W 281 0 min 0,000 mm 0,0 UV-I 0 W/m 4,2 C 3,7 C 14,5 km/h (3 Bft) 100,00 %
27.11.2016 16:30 5,7 C 91 % 1015,0 hPa 0,0 l/m 8,4 km/h (2 Bft) W 264 0 min 0,000 mm 0,0 UV-I 0 W/m 4,3 C 4,0 C 17,7 km/h (3 Bft) 100,00 %
27.11.2016 16:32 5,7 C 91 % 1015,0 hPa 0,0 l/m 6,3 km/h (2 Bft) W 270 0 min 0,000 mm 0,0 UV-I 0 W/m 4,3 C 5,7 C 12,9 km/h (3 Bft) 100,00 %
27.11.2016 16:34 5,6 C 91 % 1015,0 hPa 0,0 l/m 6,4 km/h (2 Bft) W-SW 254 0 min 0,000 mm 0,0 UV-I 0 W/m 4,2 C 5,6 C 11,3 km/h (2 Bft) 97,37 %
27.11.2016 16:36 5,6 C 91 % 1014,9 hPa 0,0 l/m 6,6 km/h (2 Bft) NW 315 0 min 0,000 mm 0,0 UV-I 0 W/m 4,2 C 5,4 C 12,9 km/h (3 Bft) 100,00 %
27.11.2016 16:38 5,6 C 91 % 1015,0 hPa 0,0 l/m 6,4 km/h (2 Bft) W-SW 250 0 min 0,000 mm 0,0 UV-I 0 W/m 4,2 C 5,6 C 12,9 km/h (3 Bft) 98,00 %
27.11.2016 16:40 5,5 C 91 % 1014,9 hPa 0,0 l/m 7,2 km/h (2 Bft) W 265 0 min 0,000 mm 0,0 UV-I 0 W/m 4,2 C 4,8 C 11,3 km/h (2 Bft) 97,37 %
27.11.2016 16:42 5,5 C 92 % 1015,0 hPa 0,0 l/m 5,4 km/h (1 Bft) W 280 0 min 0,000 mm 0,0 UV-I 0 W/m 4,3 C 5,5 C 11,3 km/h (2 Bft) 100,00 %
27.11.2016 16:44 5,4 C 92 % 1015,0 hPa 0,0 l/m 11,0 km/h (2 Bft) W 277 0 min 0,000 mm 0,0 UV-I 0 W/m 4,2 C 1,8 C 17,7 km/h (3 Bft) 100,00 %
27.11.2016 16:46 5,5 C 92 % 1015,0 hPa 0,0 l/m 8,0 km/h (2 Bft) W-SW 258 0 min 0,000 mm 0,0 UV-I 0 W/m 4,3 C 4,1 C 12,9 km/h (3 Bft) 100,00 %
27.11.2016 16:48 5,4 C 92 % 1015,0 hPa 0,0 l/m 6,4 km/h (2 Bft) W 272 0 min 0,000 mm 0,0 UV-I 0 W/m 4,2 C 5,4 C 12,9 km/h (3 Bft) 98,11 %
27.11.2016 16:50 5,4 C 92 % 1015,0 hPa 0,0 l/m 7,6 km/h (2 Bft) W 281 0 min 0,000 mm 0,0 UV-I 0 W/m 4,2 C 4,4 C 14,5 km/h (3 Bft) 100,00 %
27.11.2016 16:52 5,4 C 92 % 1015,1 hPa 0,0 l/m 4,6 km/h (1 Bft) W-NW 290 0 min 0,000 mm 0,0 UV-I 0 W/m 4,2 C 5,4 C 9,7 km/h (2 Bft) 100,00 %
27.11.2016 16:54 5,4 C 92 % 1015,1 hPa 0,0 l/m 3,1 km/h (1 Bft) W 268 0 min 0,000 mm 0,0 UV-I 0 W/m 4,2 C 5,4 C 6,4 km/h (2 Bft) 100,00 %
27.11.2016 16:56 5,4 C 92 % 1015,1 hPa 0,0 l/m 4,6 km/h (1 Bft) W-NW 284 0 min 0,000 mm 0,0 UV-I 0 W/m 4,2 C 5,4 C 12,9 km/h (3 Bft) 97,14 %
27.11.2016 16:58 5,4 C 92 % 1015,1 hPa 0,0 l/m 5,5 km/h (1 Bft) W-SW 255 0 min 0,000 mm 0,0 UV-I 0 W/m 4,2 C 5,4 C 11,3 km/h (2 Bft) 100,00 %
27.11.2016 17:00 5,4 C 92 % 1015,1 hPa 0,0 l/m 5,9 km/h (2 Bft) W 263 0 min 0,000 mm 0,0 UV-I 0 W/m 4,2 C 5,4 C 11,3 km/h (2 Bft) 100,00 %
27.11.2016 17:02 5,3 C 92 % 1015,1 hPa 0,0 l/m 4,9 km/h (1 Bft) W-NW 292 0 min 0,000 mm 0,0 UV-I 0 W/m 4,1 C 5,3 C 8,0 km/h (2 Bft) 100,00 %
27.11.2016 17:04 5,3 C 93 % 1015,1 hPa 0,0 l/m 5,2 km/h (1 Bft) W-NW 288 0 min 0,000 mm 0,0 UV-I 0 W/m 4,3 C 5,3 C 11,3 km/h (2 Bft) 100,00 %
27.11.2016 17:06 5,3 C 93 % 1015,2 hPa 0,0 l/m 8,2 km/h (2 Bft) W 259 0 min 0,000 mm 0,0 UV-I 0 W/m 4,3 C 3,8 C 14,5 km/h (3 Bft) 98,00 %
27.11.2016 17:08 5,3 C 93 % 1015,2 hPa 0,0 l/m 7,3 km/h (2 Bft) W-SW 255 0 min 0,000 mm 0,0 UV-I 0 W/m 4,3 C 4,5 C 12,9 km/h (3 Bft) 98,18 %
27.11.2016 17:10 5,3 C 93 % 1015,2 hPa 0,0 l/m 7,1 km/h (2 Bft) W 263 0 min 0,000 mm 0,0 UV-I 0 W/m 4,3 C 4,7 C 14,5 km/h (3 Bft) 95,12 %
27.11.2016 17:12 5,3 C 93 % 1015,2 hPa 0,0 l/m 5,7 km/h (1 Bft) W 279 0 min 0,000 mm 0,0 UV-I 0 W/m 4,3 C 5,3 C 12,9 km/h (3 Bft) 97,44 %
27.11.2016 17:14 5,3 C 93 % 1015,3 hPa 0,0 l/m 5,2 km/h (1 Bft) W 263 0 min 0,000 mm 0,0 UV-I 0 W/m 4,3 C 5,3 C 11,3 km/h (2 Bft) 98,11 %
27.11.2016 17:16 5,3 C 93 % 1015,2 hPa 0,0 l/m 5,0 km/h (1 Bft) W 264 0 min 0,000 mm 0,0 UV-I 0 W/m 4,3 C 5,3 C 11,3 km/h (2 Bft) 98,00 %
27.11.2016 17:18 5,3 C 93 % 1015,3 hPa 0,0 l/m 5,5 km/h (1 Bft) W 279 0 min 0,000 mm 0,0 UV-I 0 W/m 4,3 C 5,3 C 11,3 km/h (2 Bft) 93,62 %
27.11.2016 17:20 5,3 C 93 % 1015,3 hPa 0,0 l/m 6,2 km/h (2 Bft) W 261 0 min 0,000 mm 0,0 UV-I 0 W/m 4,3 C 5,3 C 11,3 km/h (2 Bft) 97,87 %
27.11.2016 17:22 5,3 C 93 % 1015,3 hPa 0,0 l/m 8,5 km/h (2 Bft) W-SW 257 0 min 0,000 mm 0,0 UV-I 0 W/m 4,3 C 3,5 C 14,5 km/h (3 Bft) 97,56 %
27.11.2016 17:24 5,3 C 93 % 1015,3 hPa 0,0 l/m 5,6 km/h (1 Bft) W 274 0 min 0,000 mm 0,0 UV-I 0 W/m 4,3 C 5,3 C 11,3 km/h (2 Bft) 98,21 %
27.11.2016 17:26 5,3 C 93 % 1015,4 hPa 0,0 l/m 7,3 km/h (2 Bft) W-NW 294 0 min 0,000 mm 0,0 UV-I 0 W/m 4,3 C 4,5 C 14,5 km/h (3 Bft) 97,37 %
27.11.2016 17:28 5,3 C 93 % 1015,4 hPa 0,0 l/m 8,4 km/h (2 Bft) W 278 0 min 0,000 mm 0,0 UV-I 0 W/m 4,3 C 3,6 C 14,5 km/h (3 Bft) 98,21 %
27.11.2016 17:30 5,2 C 93 % 1015,4 hPa 0,0 l/m 4,6 km/h (1 Bft) W-SW 238 0 min 0,000 mm 0,0 UV-I 0 W/m 4,2 C 5,2 C 11,3 km/h (2 Bft) 95,74 %
27.11.2016 17:32 5,2 C 93 % 1015,5 hPa 0,0 l/m 6,8 km/h (2 Bft) W 263 0 min 0,000 mm 0,0 UV-I 0 W/m 4,2 C 4,9 C 11,3 km/h (2 Bft) 97,14 %
27.11.2016 17:34 5,2 C 93 % 1015,5 hPa 0,0 l/m 4,4 km/h (1 Bft) W-NW 287 0 min 0,000 mm 0,0 UV-I 0 W/m 4,2 C 5,2 C 12,9 km/h (3 Bft) 96,23 %
27.11.2016 17:36 5,2 C 94 % 1015,4 hPa 0,0 l/m 3,7 km/h (1 Bft) W-NW 289 0 min 0,000 mm 0,0 UV-I 0 W/m 4,3 C 5,2 C 14,5 km/h (3 Bft) 95,92 %
27.11.2016 17:38 5,2 C 94 % 1015,5 hPa 0,0 l/m 5,5 km/h (1 Bft) W-SW 252 0 min 0,000 mm 0,0 UV-I 0 W/m 4,3 C 5,2 C 14,5 km/h (3 Bft) 92,68 %
27.11.2016 17:40 5,1 C 94 % 1015,6 hPa 0,0 l/m 7,5 km/h (2 Bft) W-NW 292 0 min 0,000 mm 0,0 UV-I 0 W/m 4,2 C 4,1 C 12,9 km/h (3 Bft) 98,11 %
27.11.2016 17:42 5,0 C 93 % 1015,6 hPa 0,2 l/m 8,5 km/h (2 Bft) NW 316 0 min 0,000 mm 0,0 UV-I 0 W/m 4,0 C 3,2 C 17,7 km/h (3 Bft) 100,00 %
27.11.2016 17:44 4,9 C 93 % 1015,6 hPa 0,2 l/m 7,6 km/h (2 Bft) W 275 0 min 0,000 mm 0,0 UV-I 0 W/m 3,9 C 3,8 C 16,1 km/h (3 Bft) 100,00 %
27.11.2016 17:46 4,7 C 93 % 1015,6 hPa 0,0 l/m 6,7 km/h (2 Bft) W-NW 288 0 min 0,000 mm 0,0 UV-I 0 W/m 3,7 C 4,4 C 14,5 km/h (3 Bft) 100,00 %
27.11.2016 17:48 4,7 C 93 % 1015,6 hPa 0,0 l/m 4,3 km/h (1 Bft) W-NW 286 0 min 0,000 mm 0,0 UV-I 0 W/m 3,7 C 4,7 C 12,9 km/h (3 Bft) 100,00 %
27.11.2016 17:50 4,5 C 93 % 1015,6 hPa 0,2 l/m 6,8 km/h (2 Bft) NW 305 0 min 0,000 mm 0,0 UV-I 0 W/m 3,5 C 4,2 C 12,9 km/h (3 Bft) 98,00 %
27.11.2016 17:52 4,4 C 93 % 1015,7 hPa 0,0 l/m 7,0 km/h (2 Bft) W 274 0 min 0,000 mm 0,0 UV-I 0 W/m 3,4 C 3,9 C 16,1 km/h (3 Bft) 97,44 %
27.11.2016 17:54 4,4 C 94 % 1015,7 hPa 0,0 l/m 8,4 km/h (2 Bft) W-SW 255 0 min 0,000 mm 0,0 UV-I 0 W/m 3,5 C 2,6 C 12,9 km/h (3 Bft) 100,00 %
27.11.2016 17:56 4,4 C 94 % 1015,6 hPa 0,0 l/m 9,6 km/h (2 Bft) W-SW 244 0 min 0,000 mm 0,0 UV-I 0 W/m 3,5 C 1,7 C 16,1 km/h (3 Bft) 100,00 %
27.11.2016 17:58 4,4 C 94 % 1015,6 hPa 0,2 l/m 8,3 km/h (2 Bft) SW 232 0 min 0,000 mm 0,0 UV-I 0 W/m 3,5 C 2,7 C 14,5 km/h (3 Bft) 100,00 %
27.11.2016 18:00 4,4 C 94 % 1015,5 hPa 0,0 l/m 11,5 km/h (2 Bft) SW 231 0 min 0,000 mm 0,0 UV-I 0 W/m 3,5 C 0,4 C 19,3 km/h (3 Bft) 100,00 %
27.11.2016 18:02 4,4 C 94 % 1015,5 hPa 0,0 l/m 10,0 km/h (2 Bft) W-SW 251 0 min 0,000 mm 0,0 UV-I 0 W/m 3,5 C 1,4 C 14,5 km/h (3 Bft) 100,00 %
27.11.2016 18:04 4,4 C 94 % 1015,5 hPa 0,0 l/m 11,7 km/h (2 Bft) SW 236 0 min 0,000 mm 0,0 UV-I 0 W/m 3,5 C 0,3 C 17,7 km/h (3 Bft) 100,00 %
27.11.2016 18:06 4,5 C 95 % 1015,5 hPa 0,0 l/m 13,6 km/h (3 Bft) W-SW 237 0 min 0,000 mm 0,0 UV-I 0 W/m 3,8 C -0,8 C 19,3 km/h (3 Bft) 100,00 %
27.11.2016 18:08 4,6 C 95 % 1015,5 hPa 0,0 l/m 11,7 km/h (2 Bft) W 264 0 min 0,000 mm 0,0 UV-I 0 W/m 3,9 C 0,5 C 19,3 km/h (3 Bft) 100,00 %
27.11.2016 18:10 4,6 C 95 % 1015,6 hPa 0,0 l/m 12,4 km/h (3 Bft) SW 234 0 min 0,000 mm 0,0 UV-I 0 W/m 3,9 C 0,1 C 17,7 km/h (3 Bft) 100,00 %
27.11.2016 18:12 4,6 C 95 % 1015,6 hPa 0,0 l/m 13,2 km/h (3 Bft) W-SW 246 0 min 0,000 mm 0,0 UV-I 0 W/m 3,9 C -0,4 C 19,3 km/h (3 Bft) 100,00 %
27.11.2016 18:14 4,6 C 94 % 1015,7 hPa 0,0 l/m 12,6 km/h (3 Bft) W-SW 257 0 min 0,000 mm 0,0 UV-I 0 W/m 3,7 C -0,1 C 16,1 km/h (3 Bft) 100,00 %
27.11.2016 18:16 4,6 C 94 % 1015,7 hPa 0,0 l/m 12,5 km/h (3 Bft) W 266 0 min 0,000 mm 0,0 UV-I 0 W/m 3,7 C -0,0 C 16,1 km/h (3 Bft) 100,00 %
27.11.2016 18:18 4,5 C 94 % 1015,8 hPa 0,0 l/m 9,3 km/h (2 Bft) W-SW 244 0 min 0,000 mm 0,0 UV-I 0 W/m 3,6 C 2,0 C 17,7 km/h (3 Bft) 100,00 %
27.11.2016 18:20 4,5 C 93 % 1015,8 hPa 0,0 l/m 6,7 km/h (2 Bft) W 269 0 min 0,000 mm 0,0 UV-I 0 W/m 3,5 C 4,2 C 12,9 km/h (3 Bft) 100,00 %
27.11.2016 18:22 4,4 C 93 % 1015,9 hPa 0,0 l/m 5,1 km/h (1 Bft) W-NW 288 0 min 0,000 mm 0,0 UV-I 0 W/m 3,4 C 4,4 C 9,7 km/h (2 Bft) 100,00 %
27.11.2016 18:24 4,4 C 93 % 1016,0 hPa 0,0 l/m 4,4 km/h (1 Bft) W-NW 295 0 min 0,000 mm 0,0 UV-I 0 W/m 3,4 C 4,4 C 9,7 km/h (2 Bft) 100,00 %
27.11.2016 18:26 4,4 C 93 % 1015,9 hPa 0,0 l/m 3,8 km/h (1 Bft) W 279 0 min 0,000 mm 0,0 UV-I 0 W/m 3,4 C 4,4 C 4,8 km/h (1 Bft) 100,00 %
27.11.2016 18:28 4,4 C 93 % 1016,0 hPa 0,0 l/m 2,7 km/h (1 Bft) W-NW 300 0 min 0,000 mm 0,0 UV-I 0 W/m 3,4 C 4,4 C 4,8 km/h (1 Bft) 100,00 %
27.11.2016 18:30 4,4 C 94 % 1015,9 hPa 0,0 l/m 3,2 km/h (1 Bft) W-NW 292 0 min 0,000 mm 0,0 UV-I 0 W/m 3,5 C 4,4 C 6,4 km/h (2 Bft) 100,00 %
27.11.2016 18:32 4,3 C 94 % 1016,1 hPa 0,0 l/m 2,6 km/h (1 Bft) W-NW 298 0 min 0,000 mm 0,0 UV-I 0 W/m 3,4 C 4,3 C 4,8 km/h (1 Bft) 100,00 %
27.11.2016 18:34 4,3 C 94 % 1016,1 hPa 0,0 l/m 1,9 km/h (1 Bft) W-NW 294 0 min 0,000 mm 0,0 UV-I 0 W/m 3,4 C 4,3 C 4,8 km/h (1 Bft) 98,21 %
27.11.2016 18:36 4,3 C 94 % 1016,1 hPa 0,0 l/m 3,6 km/h (1 Bft) W 281 0 min 0,000 mm 0,0 UV-I 0 W/m 3,4 C 4,3 C 9,7 km/h (2 Bft) 98,11 %
27.11.2016 18:38 4,3 C 94 % 1016,1 hPa 0,0 l/m 0,9 km/h (0 Bft) W 281 0 min 0,000 mm 0,0 UV-I 0 W/m 3,4 C 4,3 C 3,2 km/h (1 Bft) 100,00 %
27.11.2016 18:40 4,3 C 94 % 1016,1 hPa 0,0 l/m 3,0 km/h (1 Bft) W 273 0 min 0,000 mm 0,0 UV-I 0 W/m 3,4 C 4,3 C 9,7 km/h (2 Bft) 100,00 %
27.11.2016 18:42 4,3 C 94 % 1016,1 hPa 0,0 l/m 4,4 km/h (1 Bft) W-NW 288 0 min 0,000 mm 0,0 UV-I 0 W/m 3,4 C 4,3 C 6,4 km/h (2 Bft) 96,23 %
27.11.2016 18:44 4,3 C 93 % 1016,1 hPa 0,0 l/m 6,4 km/h (2 Bft) W 262 0 min 0,000 mm 0,0 UV-I 0 W/m 3,3 C 4,3 C 12,9 km/h (3 Bft) 100,00 %
27.11.2016 18:46 4,3 C 93 % 1016,1 hPa 0,0 l/m 7,1 km/h (2 Bft) W-SW 258 0 min 0,000 mm 0,0 UV-I 0 W/m 3,3 C 3,7 C 12,9 km/h (3 Bft) 100,00 %
27.11.2016 18:48 4,3 C 93 % 1016,1 hPa 0,0 l/m 5,8 km/h (2 Bft) W 265 0 min 0,000 mm 0,0 UV-I 0 W/m 3,3 C 4,3 C 9,7 km/h (2 Bft) 100,00 %
27.11.2016 18:50 4,3 C 93 % 1016,2 hPa 0,0 l/m 6,5 km/h (2 Bft) W 273 0 min 0,000 mm 0,0 UV-I 0 W/m 3,3 C 4,2 C 12,9 km/h (3 Bft) 100,00 %
27.11.2016 18:52 4,3 C 94 % 1016,2 hPa 0,0 l/m 6,4 km/h (2 Bft) W-SW 256 0 min 0,000 mm 0,0 UV-I 0 W/m 3,4 C 4,3 C 9,7 km/h (2 Bft) 100,00 %
27.11.2016 18:54 4,3 C 94 % 1016,2 hPa 0,0 l/m 7,4 km/h (2 Bft) W 267 0 min 0,000 mm 0,0 UV-I 0 W/m 3,4 C 3,4 C 9,7 km/h (2 Bft) 96,43 %
27.11.2016 18:56 4,3 C 94 % 1016,2 hPa 0,0 l/m 8,7 km/h (2 Bft) W 261 0 min 0,000 mm 0,0 UV-I 0 W/m 3,4 C 2,3 C 14,5 km/h (3 Bft) 97,37 %
27.11.2016 18:58 4,3 C 94 % 1016,2 hPa 0,0 l/m 5,8 km/h (2 Bft) W 265 0 min 0,000 mm 0,0 UV-I 0 W/m 3,4 C 4,3 C 11,3 km/h (2 Bft) 100,00 %
27.11.2016 19:00 4,2 C 94 % 1016,2 hPa 0,0 l/m 6,0 km/h (2 Bft) W 272 0 min 0,000 mm 0,0 UV-I 0 W/m 3,3 C 4,2 C 9,7 km/h (2 Bft) 98,11 %
27.11.2016 19:02 4,2 C 94 % 1016,2 hPa 0,0 l/m 6,0 km/h (2 Bft) W 268 0 min 0,000 mm 0,0 UV-I 0 W/m 3,3 C 4,2 C 8,0 km/h (2 Bft) 98,00 %
27.11.2016 19:04 4,2 C 94 % 1016,3 hPa 0,0 l/m 6,1 km/h (2 Bft) W 274 0 min 0,000 mm 0,0 UV-I 0 W/m 3,3 C 4,2 C 9,7 km/h (2 Bft) 100,00 %
27.11.2016 19:06 4,2 C 94 % 1016,3 hPa 0,0 l/m 5,4 km/h (1 Bft) W 279 0 min 0,000 mm 0,0 UV-I 0 W/m 3,3 C 4,2 C 9,7 km/h (2 Bft) 100,00 %
27.11.2016 19:08 4,2 C 94 % 1016,3 hPa 0,0 l/m 6,5 km/h (2 Bft) W-SW 247 0 min 0,000 mm 0,0 UV-I 0 W/m 3,3 C 4,1 C 11,3 km/h (2 Bft) 100,00 %
27.11.2016 19:10 4,2 C 94 % 1016,3 hPa 0,0 l/m 7,2 km/h (2 Bft) W-SW 254 0 min 0,000 mm 0,0 UV-I 0 W/m 3,3 C 3,5 C 11,3 km/h (2 Bft) 95,24 %
27.11.2016 19:12 4,2 C 94 % 1016,3 hPa 0,0 l/m 6,8 km/h (2 Bft) W 272 0 min 0,000 mm 0,0 UV-I 0 W/m 3,3 C 3,8 C 11,3 km/h (2 Bft) 98,11 %
27.11.2016 19:14 4,2 C 94 % 1016,3 hPa 0,0 l/m 5,0 km/h (1 Bft) W 267 0 min 0,000 mm 0,0 UV-I 0 W/m 3,3 C 4,2 C 9,7 km/h (2 Bft) 97,87 %
27.11.2016 19:16 4,2 C 94 % 1016,3 hPa 0,0 l/m 5,7 km/h (1 Bft) W-SW 241 0 min 0,000 mm 0,0 UV-I 0 W/m 3,3 C 4,2 C 9,7 km/h (2 Bft) 97,56 %
27.11.2016 19:18 4,2 C 94 % 1016,3 hPa 0,0 l/m 4,8 km/h (1 Bft) W 268 0 min 0,000 mm 0,0 UV-I 0 W/m 3,3 C 4,2 C 6,4 km/h (2 Bft) 98,00 %
27.11.2016 19:20 4,2 C 94 % 1016,4 hPa 0,0 l/m 4,9 km/h (1 Bft) W-SW 251 0 min 0,000 mm 0,0 UV-I 0 W/m 3,3 C 4,2 C 11,3 km/h (2 Bft) 96,00 %
27.11.2016 19:22 4,2 C 94 % 1016,4 hPa 0,0 l/m 4,3 km/h (1 Bft) W 264 0 min 0,000 mm 0,0 UV-I 0 W/m 3,3 C 4,2 C 6,4 km/h (2 Bft) 97,37 %
27.11.2016 19:24 4,2 C 94 % 1016,4 hPa 0,0 l/m 5,1 km/h (1 Bft) W-SW 246 0 min 0,000 mm 0,0 UV-I 0 W/m 3,3 C 4,2 C 8,0 km/h (2 Bft) 98,00 %
27.11.2016 19:26 4,2 C 94 % 1016,4 hPa 0,0 l/m 4,9 km/h (1 Bft) W-SW 245 0 min 0,000 mm 0,0 UV-I 0 W/m 3,3 C 4,2 C 8,0 km/h (2 Bft) 98,11 %
27.11.2016 19:28 4,2 C 94 % 1016,4 hPa 0,0 l/m 3,4 km/h (1 Bft) W-SW 245 0 min 0,000 mm 0,0 UV-I 0 W/m 3,3 C 4,2 C 4,8 km/h (1 Bft) 97,87 %
27.11.2016 19:30 4,2 C 94 % 1016,5 hPa 0,0 l/m 4,2 km/h (1 Bft) W-SW 246 0 min 0,000 mm 0,0 UV-I 0 W/m 3,3 C 4,2 C 6,4 km/h (2 Bft) 97,87 %
27.11.2016 19:32 4,2 C 94 % 1016,5 hPa 0,0 l/m 4,7 km/h (1 Bft) W 265 0 min 0,000 mm 0,0 UV-I 0 W/m 3,3 C 4,2 C 8,0 km/h (2 Bft) 97,87 %
27.11.2016 19:34 4,2 C 94 % 1016,5 hPa 0,0 l/m 4,1 km/h (1 Bft) SW 232 0 min 0,000 mm 0,0 UV-I 0 W/m 3,3 C 4,2 C 8,0 km/h (2 Bft) 95,74 %
27.11.2016 19:36 4,2 C 94 % 1016,5 hPa 0,0 l/m 6,4 km/h (2 Bft) SW 232 0 min 0,000 mm 0,0 UV-I 0 W/m 3,3 C 4,2 C 8,0 km/h (2 Bft) 97,37 %
27.11.2016 19:38 4,2 C 94 % 1016,5 hPa 0,0 l/m 5,9 km/h (2 Bft) SW 232 0 min 0,000 mm 0,0 UV-I 0 W/m 3,3 C 4,2 C 8,0 km/h (2 Bft) 95,74 %
27.11.2016 19:40 4,2 C 94 % 1016,5 hPa 0,0 l/m 5,0 km/h (1 Bft) W 266 0 min 0,000 mm 0,0 UV-I 0 W/m 3,3 C 4,2 C 6,4 km/h (2 Bft) 97,87 %
27.11.2016 19:42 4,2 C 94 % 1016,5 hPa 0,0 l/m 6,4 km/h (2 Bft) W 260 0 min 0,000 mm 0,0 UV-I 0 W/m 3,3 C 4,2 C 9,7 km/h (2 Bft) 95,45 %
27.11.2016 19:44 4,2 C 94 % 1016,5 hPa 0,0 l/m 7,1 km/h (2 Bft) W-SW 246 0 min 0,000 mm 0,0 UV-I 0 W/m 3,3 C 3,6 C 11,3 km/h (2 Bft) 97,87 %
27.11.2016 19:46 4,2 C 94 % 1016,5 hPa 0,0 l/m 6,4 km/h (2 Bft) W 266 0 min 0,000 mm 0,0 UV-I 0 W/m 3,3 C 4,2 C 11,3 km/h (2 Bft) 100,00 %
27.11.2016 19:48 4,2 C 94 % 1016,5 hPa 0,0 l/m 5,6 km/h (1 Bft) W-SW 246 0 min 0,000 mm 0,0 UV-I 0 W/m 3,3 C 4,2 C 8,0 km/h (2 Bft) 100,00 %
27.11.2016 19:50 4,2 C 94 % 1016,5 hPa 0,0 l/m 4,9 km/h (1 Bft) W-SW 243 0 min 0,000 mm 0,0 UV-I 0 W/m 3,3 C 4,2 C 6,4 km/h (2 Bft) 100,00 %
27.11.2016 19:52 4,2 C 94 % 1016,5 hPa 0,0 l/m 4,8 km/h (1 Bft) W-SW 257 0 min 0,000 mm 0,0 UV-I 0 W/m 3,3 C 4,2 C 6,4 km/h (2 Bft) 100,00 %
27.11.2016 19:54 4,2 C 94 % 1016,5 hPa 0,0 l/m 6,0 km/h (2 Bft) SW 227 0 min 0,000 mm 0,0 UV-I 0 W/m 3,3 C 4,2 C 8,0 km/h (2 Bft) 97,87 %
27.11.2016 19:56 4,2 C 94 % 1016,5 hPa 0,0 l/m 5,8 km/h (2 Bft) SW 220 0 min 0,000 mm 0,0 UV-I 0 W/m 3,3 C 4,2 C 8,0 km/h (2 Bft) 100,00 %
27.11.2016 19:58 4,2 C 94 % 1016,5 hPa 0,0 l/m 4,8 km/h (1 Bft) SW 227 0 min 0,000 mm 0,0 UV-I 0 W/m 3,3 C 4,2 C 8,0 km/h (2 Bft) 100,00 %
27.11.2016 20:00 4,2 C 94 % 1016,5 hPa 0,0 l/m 4,8 km/h (1 Bft) W-SW 238 0 min 0,000 mm 0,0 UV-I 0 W/m 3,3 C 4,2 C 8,0 km/h (2 Bft) 100,00 %
27.11.2016 20:02 4,2 C 94 % 1016,5 hPa 0,0 l/m 5,1 km/h (1 Bft) SW 227 0 min 0,000 mm 0,0 UV-I 0 W/m 3,3 C 4,2 C 8,0 km/h (2 Bft) 97,14 %
27.11.2016 20:04 4,2 C 94 % 1016,6 hPa 0,0 l/m 4,1 km/h (1 Bft) SW 236 0 min 0,000 mm 0,0 UV-I 0 W/m 3,3 C 4,2 C 8,0 km/h (2 Bft) 98,21 %
27.11.2016 20:06 4,2 C 94 % 1016,6 hPa 0,0 l/m 5,5 km/h (1 Bft) W-SW 242 0 min 0,000 mm 0,0 UV-I 0 W/m 3,3 C 4,2 C 8,0 km/h (2 Bft) 98,00 %
27.11.2016 20:08 4,2 C 94 % 1016,6 hPa 0,0 l/m 5,4 km/h (1 Bft) W-SW 244 0 min 0,000 mm 0,0 UV-I 0 W/m 3,3 C 4,2 C 9,7 km/h (2 Bft) 100,00 %
27.11.2016 20:10 4,2 C 94 % 1016,7 hPa 0,0 l/m 5,8 km/h (2 Bft) SW 223 0 min 0,000 mm 0,0 UV-I 0 W/m 3,3 C 4,2 C 11,3 km/h (2 Bft) 100,00 %
27.11.2016 20:12 4,2 C 94 % 1016,7 hPa 0,0 l/m 8,0 km/h (2 Bft) W-SW 246 0 min 0,000 mm 0,0 UV-I 0 W/m 3,3 C 2,8 C 11,3 km/h (2 Bft) 100,00 %
27.11.2016 20:14 4,2 C 94 % 1016,7 hPa 0,0 l/m 7,7 km/h (2 Bft) SW 221 0 min 0,000 mm 0,0 UV-I 0 W/m 3,3 C 3,0 C 11,3 km/h (2 Bft) 100,00 %
27.11.2016 20:16 4,2 C 94 % 1016,7 hPa 0,0 l/m 7,1 km/h (2 Bft) SW 229 0 min 0,000 mm 0,0 UV-I 0 W/m 3,3 C 3,6 C 11,3 km/h (2 Bft) 100,00 %
27.11.2016 20:18 4,2 C 94 % 1016,7 hPa 0,0 l/m 6,4 km/h (2 Bft) SW 234 0 min 0,000 mm 0,0 UV-I 0 W/m 3,3 C 4,2 C 8,0 km/h (2 Bft) 100,00 %
27.11.2016 20:20 4,2 C 94 % 1016,7 hPa 0,0 l/m 6,2 km/h (2 Bft) W-SW 249 0 min 0,000 mm 0,0 UV-I 0 W/m 3,3 C 4,2 C 8,0 km/h (2 Bft) 100,00 %
27.11.2016 20:22 4,2 C 94 % 1016,8 hPa 0,0 l/m 6,3 km/h (2 Bft) W-SW 244 0 min 0,000 mm 0,0 UV-I 0 W/m 3,3 C 4,2 C 11,3 km/h (2 Bft) 100,00 %
27.11.2016 20:24 4,2 C 94 % 1016,8 hPa 0,0 l/m 8,3 km/h (2 Bft) W 263 0 min 0,000 mm 0,0 UV-I 0 W/m 3,3 C 2,5 C 14,5 km/h (3 Bft) 100,00 %
27.11.2016 20:26 4,2 C 94 % 1016,8 hPa 0,0 l/m 8,7 km/h (2 Bft) W-SW 248 0 min 0,000 mm 0,0 UV-I 0 W/m 3,3 C 2,2 C 14,5 km/h (3 Bft) 100,00 %
27.11.2016 20:28 4,2 C 94 % 1016,8 hPa 0,0 l/m 7,5 km/h (2 Bft) W-SW 250 0 min 0,000 mm 0,0 UV-I 0 W/m 3,3 C 3,2 C 11,3 km/h (2 Bft) 100,00 %
27.11.2016 20:30 4,2 C 94 % 1016,9 hPa 0,0 l/m 6,7 km/h (2 Bft) W 264 0 min 0,000 mm 0,0 UV-I 0 W/m 3,3 C 3,9 C 9,7 km/h (2 Bft) 100,00 %
27.11.2016 20:32 4,2 C 94 % 1016,9 hPa 0,0 l/m 8,0 km/h (2 Bft) W 280 0 min 0,000 mm 0,0 UV-I 0 W/m 3,3 C 2,8 C 12,9 km/h (3 Bft) 100,00 %
27.11.2016 20:34 4,3 C 94 % 1016,9 hPa 0,0 l/m 6,6 km/h (2 Bft) W-NW 282 0 min 0,000 mm 0,0 UV-I 0 W/m 3,4 C 4,1 C 11,3 km/h (2 Bft) 97,73 %
27.11.2016 20:36 4,3 C 94 % 1016,9 hPa 0,0 l/m 6,3 km/h (2 Bft) W-NW 289 0 min 0,000 mm 0,0 UV-I 0 W/m 3,4 C 4,3 C 9,7 km/h (2 Bft) 100,00 %
27.11.2016 20:38 4,2 C 94 % 1016,9 hPa 0,0 l/m 5,4 km/h (1 Bft) W-SW 252 0 min 0,000 mm 0,0 UV-I 0 W/m 3,3 C 4,2 C 9,7 km/h (2 Bft) 100,00 %
27.11.2016 20:40 4,2 C 94 % 1016,9 hPa 0,0 l/m 5,6 km/h (1 Bft) SW 234 0 min 0,000 mm 0,0 UV-I 0 W/m 3,3 C 4,2 C 9,7 km/h (2 Bft) 100,00 %
27.11.2016 20:42 4,2 C 94 % 1016,9 hPa 0,0 l/m 6,0 km/h (2 Bft) W 259 0 min 0,000 mm 0,0 UV-I 0 W/m 3,3 C 4,2 C 11,3 km/h (2 Bft) 100,00 %
27.11.2016 20:44 4,2 C 94 % 1016,9 hPa 0,0 l/m 6,4 km/h (2 Bft) W 268 0 min 0,000 mm 0,0 UV-I 0 W/m 3,3 C 4,2 C 11,3 km/h (2 Bft) 100,00 %
27.11.2016 20:46 4,2 C 94 % 1016,9 hPa 0,0 l/m 6,8 km/h (2 Bft) W-SW 254 0 min 0,000 mm 0,0 UV-I 0 W/m 3,3 C 3,8 C 9,7 km/h (2 Bft) 100,00 %
27.11.2016 20:48 4,2 C 94 % 1016,9 hPa 0,0 l/m 7,7 km/h (2 Bft) W-SW 246 0 min 0,000 mm 0,0 UV-I 0 W/m 3,3 C 3,0 C 9,7 km/h (2 Bft) 100,00 %
27.11.2016 20:50 4,2 C 94 % 1016,9 hPa 0,0 l/m 7,3 km/h (2 Bft) W 262 0 min 0,000 mm 0,0 UV-I 0 W/m 3,3 C 3,4 C 11,3 km/h (2 Bft) 100,00 %
27.11.2016 20:52 4,2 C 94 % 1016,9 hPa 0,0 l/m 6,8 km/h (2 Bft) W-SW 244 0 min 0,000 mm 0,0 UV-I 0 W/m 3,3 C 3,8 C 11,3 km/h (2 Bft) 100,00 %
27.11.2016 20:54 4,1 C 94 % 1017,0 hPa 0,0 l/m 6,4 km/h (2 Bft) W-SW 248 0 min 0,000 mm 0,0 UV-I 0 W/m 3,2 C 4,1 C 9,7 km/h (2 Bft) 100,00 %
27.11.2016 20:56 4,1 C 94 % 1017,0 hPa 0,0 l/m 8,1 km/h (2 Bft) W-SW 247 0 min 0,000 mm 0,0 UV-I 0 W/m 3,2 C 2,6 C 12,9 km/h (3 Bft) 100,00 %
27.11.2016 20:58 4,1 C 94 % 1017,1 hPa 0,0 l/m 5,9 km/h (2 Bft) W-SW 247 0 min 0,000 mm 0,0 UV-I 0 W/m 3,2 C 4,1 C 11,3 km/h (2 Bft) 100,00 %
27.11.2016 21:00 4,1 C 94 % 1017,0 hPa 0,0 l/m 6,2 km/h (2 Bft) W-SW 255 0 min 0,000 mm 0,0 UV-I 0 W/m 3,2 C 4,1 C 11,3 km/h (2 Bft) 98,00 %
27.11.2016 21:02 4,2 C 94 % 1017,1 hPa 0,0 l/m 7,5 km/h (2 Bft) SW 216 0 min 0,000 mm 0,0 UV-I 0 W/m 3,3 C 3,2 C 11,3 km/h (2 Bft) 97,50 %
27.11.2016 21:04 4,2 C 94 % 1017,1 hPa 0,0 l/m 8,7 km/h (2 Bft) W-SW 253 0 min 0,000 mm 0,0 UV-I 0 W/m 3,3 C 2,2 C 14,5 km/h (3 Bft) 100,00 %
27.11.2016 21:06 4,1 C 94 % 1017,1 hPa 0,0 l/m 9,3 km/h (2 Bft) W-SW 253 0 min 0,000 mm 0,0 UV-I 0 W/m 3,2 C 1,6 C 14,5 km/h (3 Bft) 100,00 %
27.11.2016 21:08 4,1 C 94 % 1017,1 hPa 0,0 l/m 7,5 km/h (2 Bft) W-SW 250 0 min 0,000 mm 0,0 UV-I 0 W/m 3,2 C 3,1 C 12,9 km/h (3 Bft) 100,00 %
27.11.2016 21:10 4,1 C 94 % 1017,1 hPa 0,0 l/m 7,0 km/h (2 Bft) W-SW 252 0 min 0,000 mm 0,0 UV-I 0 W/m 3,2 C 3,6 C 11,3 km/h (2 Bft) 100,00 %
27.11.2016 21:12 4,1 C 94 % 1017,2 hPa 0,0 l/m 7,2 km/h (2 Bft) W-SW 247 0 min 0,000 mm 0,0 UV-I 0 W/m 3,2 C 3,4 C 11,3 km/h (2 Bft) 98,08 %
27.11.2016 21:14 4,1 C 94 % 1017,2 hPa 0,0 l/m 8,7 km/h (2 Bft) W-SW 250 0 min 0,000 mm 0,0 UV-I 0 W/m 3,2 C 2,1 C 12,9 km/h (3 Bft) 100,00 %
27.11.2016 21:16 4,2 C 94 % 1017,1 hPa 0,0 l/m 7,3 km/h (2 Bft) W 263 0 min 0,000 mm 0,0 UV-I 0 W/m 3,3 C 3,4 C 11,3 km/h (2 Bft) 97,37 %
27.11.2016 21:18 4,2 C 94 % 1017,1 hPa 0,0 l/m 5,9 km/h (2 Bft) W-SW 249 0 min 0,000 mm 0,0 UV-I 0 W/m 3,3 C 4,2 C 9,7 km/h (2 Bft) 100,00 %
27.11.2016 21:20 4,1 C 94 % 1017,1 hPa 0,0 l/m 7,7 km/h (2 Bft) W 260 0 min 0,000 mm 0,0 UV-I 0 W/m 3,2 C 2,9 C 11,3 km/h (2 Bft) 96,23 %
27.11.2016 21:22 4,1 C 94 % 1017,1 hPa 0,0 l/m 7,8 km/h (2 Bft) W-SW 250 0 min 0,000 mm 0,0 UV-I 0 W/m 3,2 C 2,8 C 12,9 km/h (3 Bft) 97,56 %
27.11.2016 21:24 4,1 C 94 % 1017,1 hPa 0,0 l/m 6,6 km/h (2 Bft) W-SW 254 0 min 0,000 mm 0,0 UV-I 0 W/m 3,2 C 3,9 C 11,3 km/h (2 Bft) 97,56 %
27.11.2016 21:26 4,1 C 94 % 1017,1 hPa 0,0 l/m 8,4 km/h (2 Bft) SW 234 0 min 0,000 mm 0,0 UV-I 0 W/m 3,2 C 2,3 C 11,3 km/h (2 Bft) 96,36 %
27.11.2016 21:28 4,1 C 94 % 1017,1 hPa 0,0 l/m 9,6 km/h (2 Bft) W-SW 256 0 min 0,000 mm 0,0 UV-I 0 W/m 3,2 C 1,4 C 14,5 km/h (3 Bft) 97,87 %
27.11.2016 21:30 4,1 C 94 % 1017,2 hPa 0,0 l/m 7,7 km/h (2 Bft) W-SW 237 0 min 0,000 mm 0,0 UV-I 0 W/m 3,2 C 2,9 C 12,9 km/h (3 Bft) 97,96 %
27.11.2016 21:32 4,1 C 94 % 1017,2 hPa 0,0 l/m 8,9 km/h (2 Bft) SW 234 0 min 0,000 mm 0,0 UV-I 0 W/m 3,2 C 1,9 C 12,9 km/h (3 Bft) 97,37 %
27.11.2016 21:34 4,1 C 94 % 1017,2 hPa 0,0 l/m 8,0 km/h (2 Bft) W-SW 248 0 min 0,000 mm 0,0 UV-I 0 W/m 3,2 C 2,7 C 12,9 km/h (3 Bft) 96,43 %
27.11.2016 21:36 4,1 C 94 % 1017,2 hPa 0,0 l/m 10,4 km/h (2 Bft) W-SW 253 0 min 0,000 mm 0,0 UV-I 0 W/m 3,2 C 0,8 C 14,5 km/h (3 Bft) 97,37 %
27.11.2016 21:38 4,1 C 94 % 1017,2 hPa 0,0 l/m 11,3 km/h (2 Bft) W-SW 250 0 min 0,000 mm 0,0 UV-I 0 W/m 3,2 C 0,2 C 16,1 km/h (3 Bft) 94,64 %
27.11.2016 21:40 4,1 C 94 % 1017,2 hPa 0,0 l/m 8,7 km/h (2 Bft) W-SW 239 0 min 0,000 mm 0,0 UV-I 0 W/m 3,2 C 2,1 C 12,9 km/h (3 Bft) 95,00 %
27.11.2016 21:42 4,1 C 94 % 1017,3 hPa 0,0 l/m 10,4 km/h (2 Bft) W-SW 256 0 min 0,000 mm 0,0 UV-I 0 W/m 3,2 C 0,8 C 16,1 km/h (3 Bft) 98,00 %
27.11.2016 21:44 4,0 C 94 % 1017,2 hPa 0,0 l/m 8,2 km/h (2 Bft) W-SW 257 0 min 0,000 mm 0,0 UV-I 0 W/m 3,1 C 2,4 C 12,9 km/h (3 Bft) 97,44 %
27.11.2016 21:46 4,0 C 94 % 1017,2 hPa 0,0 l/m 9,8 km/h (2 Bft) W 265 0 min 0,000 mm 0,0 UV-I 0 W/m 3,1 C 1,1 C 12,9 km/h (3 Bft) 96,36 %
27.11.2016 21:48 4,0 C 94 % 1017,2 hPa 0,0 l/m 7,7 km/h (2 Bft) W 265 0 min 0,000 mm 0,0 UV-I 0 W/m 3,1 C 2,8 C 12,9 km/h (3 Bft) 97,62 %
27.11.2016 21:50 4,0 C 94 % 1017,2 hPa 0,0 l/m 7,3 km/h (2 Bft) W 262 0 min 0,000 mm 0,0 UV-I 0 W/m 3,1 C 3,2 C 11,3 km/h (2 Bft) 98,08 %
27.11.2016 21:52 4,0 C 94 % 1017,2 hPa 0,0 l/m 7,6 km/h (2 Bft) W-SW 251 0 min 0,000 mm 0,0 UV-I 0 W/m 3,1 C 2,9 C 11,3 km/h (2 Bft) 98,11 %
27.11.2016 21:54 4,0 C 94 % 1017,2 hPa 0,0 l/m 7,2 km/h (2 Bft) W 264 0 min 0,000 mm 0,0 UV-I 0 W/m 3,1 C 3,3 C 11,3 km/h (2 Bft) 97,37 %
27.11.2016 21:56 3,9 C 94 % 1017,3 hPa 0,0 l/m 10,2 km/h (2 Bft) W-SW 257 0 min 0,000 mm 0,0 UV-I 0 W/m 3,0 C 0,7 C 14,5 km/h (3 Bft) 100,00 %
27.11.2016 21:58 3,9 C 94 % 1017,3 hPa 0,0 l/m 7,0 km/h (2 Bft) W-SW 246 0 min 0,000 mm 0,0 UV-I 0 W/m 3,0 C 3,4 C 12,9 km/h (3 Bft) 97,87 %
27.11.2016 22:00 3,9 C 94 % 1017,3 hPa 0,0 l/m 7,2 km/h (2 Bft) W 264 0 min 0,000 mm 0,0 UV-I 0 W/m 3,0 C 3,2 C 12,9 km/h (3 Bft) 100,00 %
27.11.2016 22:02 3,9 C 94 % 1017,3 hPa 0,0 l/m 6,3 km/h (2 Bft) W-NW 291 0 min 0,000 mm 0,0 UV-I 0 W/m 3,0 C 3,9 C 11,3 km/h (2 Bft) 100,00 %
27.11.2016 22:04 3,9 C 94 % 1017,2 hPa 0,0 l/m 6,8 km/h (2 Bft) W 267 0 min 0,000 mm 0,0 UV-I 0 W/m 3,0 C 3,5 C 11,3 km/h (2 Bft) 100,00 %
27.11.2016 22:06 3,9 C 94 % 1017,2 hPa 0,0 l/m 5,4 km/h (1 Bft) W 275 0 min 0,000 mm 0,0 UV-I 0 W/m 3,0 C 3,9 C 6,4 km/h (2 Bft) 100,00 %
27.11.2016 22:08 3,9 C 94 % 1017,3 hPa 0,0 l/m 5,5 km/h (1 Bft) W 266 0 min 0,000 mm 0,0 UV-I 0 W/m 3,0 C 3,9 C 8,0 km/h (2 Bft) 93,18 %
27.11.2016 22:10 3,9 C 94 % 1017,3 hPa 0,0 l/m 6,0 km/h (2 Bft) W 265 0 min 0,000 mm 0,0 UV-I 0 W/m 3,0 C 3,9 C 11,3 km/h (2 Bft) 100,00 %
27.11.2016 22:12 3,9 C 94 % 1017,3 hPa 0,0 l/m 5,3 km/h (1 Bft) W-SW 255 0 min 0,000 mm 0,0 UV-I 0 W/m 3,0 C 3,9 C 6,4 km/h (2 Bft) 100,00 %
27.11.2016 22:14 3,9 C 94 % 1017,3 hPa 0,0 l/m 5,8 km/h (2 Bft) W 265 0 min 0,000 mm 0,0 UV-I 0 W/m 3,0 C 3,9 C 9,7 km/h (2 Bft) 98,00 %
27.11.2016 22:16 3,9 C 94 % 1017,3 hPa 0,0 l/m 6,6 km/h (2 Bft) W 270 0 min 0,000 mm 0,0 UV-I 0 W/m 3,0 C 3,7 C 9,7 km/h (2 Bft) 100,00 %
27.11.2016 22:18 3,9 C 94 % 1017,4 hPa 0,0 l/m 4,7 km/h (1 Bft) W-NW 288 0 min 0,000 mm 0,0 UV-I 0 W/m 3,0 C 3,9 C 8,0 km/h (2 Bft) 97,87 %
27.11.2016 22:20 3,9 C 94 % 1017,4 hPa 0,0 l/m 7,7 km/h (2 Bft) W 281 0 min 0,000 mm 0,0 UV-I 0 W/m 3,0 C 2,7 C 11,3 km/h (2 Bft) 100,00 %
27.11.2016 22:22 3,9 C 94 % 1017,3 hPa 0,0 l/m 7,5 km/h (2 Bft) W 265 0 min 0,000 mm 0,0 UV-I 0 W/m 3,0 C 2,9 C 12,9 km/h (3 Bft) 98,11 %
27.11.2016 22:24 3,9 C 94 % 1017,3 hPa 0,0 l/m 5,6 km/h (1 Bft) W-NW 284 0 min 0,000 mm 0,0 UV-I 0 W/m 3,0 C 3,9 C 11,3 km/h (2 Bft) 100,00 %
27.11.2016 22:26 3,9 C 94 % 1017,3 hPa 0,0 l/m 6,0 km/h (2 Bft) W-SW 254 0 min 0,000 mm 0,0 UV-I 0 W/m 3,0 C 3,9 C 8,0 km/h (2 Bft) 100,00 %
27.11.2016 22:28 3,9 C 94 % 1017,3 hPa 0,0 l/m 6,3 km/h (2 Bft) W 281 0 min 0,000 mm 0,0 UV-I 0 W/m 3,0 C 3,9 C 11,3 km/h (2 Bft) 98,00 %
27.11.2016 22:30 3,9 C 94 % 1017,3 hPa 0,0 l/m 6,8 km/h (2 Bft) W-SW 256 0 min 0,000 mm 0,0 UV-I 0 W/m 3,0 C 3,5 C 12,9 km/h (3 Bft) 100,00 %
27.11.2016 22:32 3,9 C 94 % 1017,3 hPa 0,0 l/m 6,0 km/h (2 Bft) W 266 0 min 0,000 mm 0,0 UV-I 0 W/m 3,0 C 3,9 C 12,9 km/h (3 Bft) 100,00 %
27.11.2016 22:34 3,9 C 94 % 1017,4 hPa 0,0 l/m 5,6 km/h (1 Bft) W 266 0 min 0,000 mm 0,0 UV-I 0 W/m 3,0 C 3,9 C 9,7 km/h (2 Bft) 100,00 %
27.11.2016 22:36 3,8 C 94 % 1017,3 hPa 0,0 l/m 5,3 km/h (1 Bft) W 269 0 min 0,000 mm 0,0 UV-I 0 W/m 2,9 C 3,8 C 9,7 km/h (2 Bft) 100,00 %
27.11.2016 22:38 3,8 C 94 % 1017,4 hPa 0,0 l/m 5,7 km/h (1 Bft) W 277 0 min 0,000 mm 0,0 UV-I 0 W/m 2,9 C 3,8 C 11,3 km/h (2 Bft) 100,00 %
27.11.2016 22:40 3,8 C 94 % 1017,4 hPa 0,0 l/m 7,8 km/h (2 Bft) W 264 0 min 0,000 mm 0,0 UV-I 0 W/m 2,9 C 2,5 C 12,9 km/h (3 Bft) 98,00 %
27.11.2016 22:42 3,8 C 94 % 1017,4 hPa 0,0 l/m 6,8 km/h (2 Bft) W 267 0 min 0,000 mm 0,0 UV-I 0 W/m 2,9 C 3,4 C 11,3 km/h (2 Bft) 97,56 %
27.11.2016 22:44 3,8 C 94 % 1017,5 hPa 0,0 l/m 6,1 km/h (2 Bft) W 278 0 min 0,000 mm 0,0 UV-I 0 W/m 2,9 C 3,8 C 12,9 km/h (3 Bft) 100,00 %
27.11.2016 22:46 3,7 C 93 % 1017,5 hPa 0,0 l/m 10,4 km/h (2 Bft) W-NW 286 0 min 0,000 mm 0,0 UV-I 0 W/m 2,7 C 0,3 C 14,5 km/h (3 Bft) 100,00 %
27.11.2016 22:48 3,7 C 93 % 1017,6 hPa 0,0 l/m 8,2 km/h (2 Bft) W-NW 288 0 min 0,000 mm 0,0 UV-I 0 W/m 2,7 C 2,1 C 14,5 km/h (3 Bft) 100,00 %
27.11.2016 22:50 3,7 C 93 % 1017,7 hPa 0,0 l/m 7,6 km/h (2 Bft) W 281 0 min 0,000 mm 0,0 UV-I 0 W/m 2,7 C 2,6 C 14,5 km/h (3 Bft) 96,23 %
27.11.2016 22:52 3,7 C 93 % 1017,7 hPa 0,0 l/m 4,4 km/h (1 Bft) W 269 0 min 0,000 mm 0,0 UV-I 0 W/m 2,7 C 3,7 C 9,7 km/h (2 Bft) 100,00 %
27.11.2016 22:54 3,7 C 93 % 1017,7 hPa 0,0 l/m 5,6 km/h (1 Bft) W 266 0 min 0,000 mm 0,0 UV-I 0 W/m 2,7 C 3,7 C 6,4 km/h (2 Bft) 95,83 %
27.11.2016 22:56 3,7 C 93 % 1017,7 hPa 0,0 l/m 4,3 km/h (1 Bft) W 268 0 min 0,000 mm 0,0 UV-I 0 W/m 2,7 C 3,7 C 11,3 km/h (2 Bft) 100,00 %
27.11.2016 22:58 3,6 C 93 % 1017,8 hPa 0,0 l/m 4,8 km/h (1 Bft) W 261 0 min 0,000 mm 0,0 UV-I 0 W/m 2,6 C 3,6 C 6,4 km/h (2 Bft) 100,00 %
27.11.2016 23:00 3,6 C 93 % 1017,8 hPa 0,0 l/m 5,6 km/h (1 Bft) W 269 0 min 0,000 mm 0,0 UV-I 0 W/m 2,6 C 3,6 C 11,3 km/h (2 Bft) 100,00 %
27.11.2016 23:02 3,6 C 93 % 1017,8 hPa 0,0 l/m 7,4 km/h (2 Bft) W 264 0 min 0,000 mm 0,0 UV-I 0 W/m 2,6 C 2,7 C 12,9 km/h (3 Bft) 100,00 %
27.11.2016 23:04 3,6 C 93 % 1017,8 hPa 0,0 l/m 8,1 km/h (2 Bft) W 276 0 min 0,000 mm 0,0 UV-I 0 W/m 2,6 C 2,0 C 14,5 km/h (3 Bft) 97,78 %
27.11.2016 23:06 3,6 C 93 % 1017,9 hPa 0,0 l/m 4,7 km/h (1 Bft) W 269 0 min 0,000 mm 0,0 UV-I 0 W/m 2,6 C 3,6 C 9,7 km/h (2 Bft) 100,00 %
27.11.2016 23:08 3,5 C 93 % 1017,8 hPa 0,0 l/m 3,9 km/h (1 Bft) W 279 0 min 0,000 mm 0,0 UV-I 0 W/m 2,5 C 3,5 C 9,7 km/h (2 Bft) 100,00 %
27.11.2016 23:10 3,4 C 93 % 1017,8 hPa 0,0 l/m 4,2 km/h (1 Bft) W 280 0 min 0,000 mm 0,0 UV-I 0 W/m 2,4 C 3,4 C 9,7 km/h (2 Bft) 100,00 %
27.11.2016 23:12 3,4 C 93 % 1017,8 hPa 0,0 l/m 5,5 km/h (1 Bft) NW 307 0 min 0,000 mm 0,0 UV-I 0 W/m 2,4 C 3,4 C 9,7 km/h (2 Bft) 100,00 %
27.11.2016 23:14 3,4 C 93 % 1017,8 hPa 0,0 l/m 3,9 km/h (1 Bft) W-NW 290 0 min 0,000 mm 0,0 UV-I 0 W/m 2,4 C 3,4 C 11,3 km/h (2 Bft) 100,00 %
27.11.2016 23:16 3,4 C 93 % 1017,9 hPa 0,0 l/m 3,1 km/h (1 Bft) W 269 0 min 0,000 mm 0,0 UV-I 0 W/m 2,4 C 3,4 C 6,4 km/h (2 Bft) 100,00 %
27.11.2016 23:18 3,4 C 93 % 1017,9 hPa 0,0 l/m 3,3 km/h (1 Bft) NW 315 0 min 0,000 mm 0,0 UV-I 0 W/m 2,4 C 3,4 C 4,8 km/h (1 Bft) 98,00 %
27.11.2016 23:20 3,3 C 94 % 1017,9 hPa 0,0 l/m 4,0 km/h (1 Bft) W 266 0 min 0,000 mm 0,0 UV-I 0 W/m 2,4 C 3,3 C 6,4 km/h (2 Bft) 97,37 %
27.11.2016 23:22 3,3 C 94 % 1018,0 hPa 0,0 l/m 2,8 km/h (1 Bft) W 277 0 min 0,000 mm 0,0 UV-I 0 W/m 2,4 C 3,3 C 4,8 km/h (1 Bft) 98,00 %
27.11.2016 23:24 3,3 C 94 % 1018,0 hPa 0,0 l/m 2,1 km/h (1 Bft) W-NW 284 0 min 0,000 mm 0,0 UV-I 0 W/m 2,4 C 3,3 C 6,4 km/h (2 Bft) 98,11 %
27.11.2016 23:26 3,3 C 94 % 1018,0 hPa 0,0 l/m 3,8 km/h (1 Bft) W-SW 258 0 min 0,000 mm 0,0 UV-I 0 W/m 2,4 C 3,3 C 9,7 km/h (2 Bft) 97,37 %
27.11.2016 23:28 3,2 C 94 % 1018,1 hPa 0,0 l/m 4,5 km/h (1 Bft) W-NW 289 0 min 0,000 mm 0,0 UV-I 0 W/m 2,3 C 3,2 C 12,9 km/h (3 Bft) 98,00 %
27.11.2016 23:30 3,2 C 94 % 1018,1 hPa 0,0 l/m 2,8 km/h (1 Bft) W-NW 290 0 min 0,000 mm 0,0 UV-I 0 W/m 2,3 C 3,2 C 9,7 km/h (2 Bft) 97,87 %
27.11.2016 23:32 3,2 C 94 % 1018,1 hPa 0,0 l/m 2,3 km/h (1 Bft) W-NW 301 0 min 0,000 mm 0,0 UV-I 0 W/m 2,3 C 3,2 C 6,4 km/h (2 Bft) 94,74 %
27.11.2016 23:34 3,1 C 94 % 1018,2 hPa 0,0 l/m 2,4 km/h (1 Bft) W-NW 288 0 min 0,000 mm 0,0 UV-I 0 W/m 2,2 C 3,1 C 6,4 km/h (2 Bft) 96,00 %
27.11.2016 23:36 3,1 C 94 % 1018,2 hPa 0,0 l/m 2,2 km/h (1 Bft) W-NW 286 0 min 0,000 mm 0,0 UV-I 0 W/m 2,2 C 3,1 C 4,8 km/h (1 Bft) 97,87 %
27.11.2016 23:38 3,1 C 94 % 1018,2 hPa 0,0 l/m 2,1 km/h (1 Bft) NW 307 0 min 0,000 mm 0,0 UV-I 0 W/m 2,2 C 3,1 C 3,2 km/h (1 Bft) 98,11 %
27.11.2016 23:40 3,1 C 94 % 1018,2 hPa 0,0 l/m 0,6 km/h (0 Bft) NW 307 0 min 0,000 mm 0,0 UV-I 0 W/m 2,2 C 3,1 C 3,2 km/h (1 Bft) 93,62 %
27.11.2016 23:42 3,0 C 94 % 1018,3 hPa 0,0 l/m 2,1 km/h (1 Bft) W-NW 291 0 min 0,000 mm 0,0 UV-I 0 W/m 2,1 C 3,0 C 4,8 km/h (1 Bft) 97,87 %
27.11.2016 23:44 2,9 C 94 % 1018,3 hPa 0,0 l/m 1,5 km/h (1 Bft) W-NW 291 0 min 0,000 mm 0,0 UV-I 0 W/m 2,0 C 2,9 C 4,8 km/h (1 Bft) 97,87 %
27.11.2016 23:46 2,9 C 94 % 1018,3 hPa 0,0 l/m 0,2 km/h (0 Bft) W-NW 291 0 min 0,000 mm 0,0 UV-I 0 W/m 2,0 C 2,9 C 1,6 km/h (1 Bft) 97,62 %
27.11.2016 23:48 2,8 C 94 % 1018,3 hPa 0,0 l/m 1,1 km/h (1 Bft) W-NW 291 0 min 0,000 mm 0,0 UV-I 0 W/m 1,9 C 2,8 C 3,2 km/h (1 Bft) 96,00 %
27.11.2016 23:50 2,8 C 94 % 1018,3 hPa 0,0 l/m 4,7 km/h (1 Bft) NW 307 0 min 0,000 mm 0,0 UV-I 0 W/m 1,9 C 2,8 C 6,4 km/h (2 Bft) 97,56 %
27.11.2016 23:52 2,8 C 94 % 1018,3 hPa 0,0 l/m 2,9 km/h (1 Bft) W-NW 295 0 min 0,000 mm 0,0 UV-I 0 W/m 1,9 C 2,8 C 4,8 km/h (1 Bft) 98,11 %
27.11.2016 23:54 2,7 C 94 % 1018,3 hPa 0,0 l/m 1,9 km/h (1 Bft) W-NW 295 0 min 0,000 mm 0,0 UV-I 0 W/m 1,8 C 2,7 C 4,8 km/h (1 Bft) 97,87 %
27.11.2016 23:56 2,7 C 94 % 1018,3 hPa 0,0 l/m 0,9 km/h (0 Bft) W-NW 293 0 min 0,000 mm 0,0 UV-I 0 W/m 1,8 C 2,7 C 4,8 km/h (1 Bft) 95,74 %
27.11.2016 23:58 2,7 C 94 % 1018,3 hPa 0,0 l/m 5,5 km/h (1 Bft) NW 319 0 min 0,000 mm 0,0 UV-I 0 W/m 1,8 C 2,7 C 11,3 km/h (2 Bft) 93,62 %
_ Min-Zeit 23:54 14:18 14:16 - 23:46 - - - - - - 23:54 11:12 23:46 08:58
Minimum _ 2,7 C 83 % 1014,2 hPa - 0,2 km/h (0 Bft) - - - - - - 1,8 C -1,3 C 1,6 km/h (1 Bft) 92,00 %
_ Max-Zeit 10:46 03:04 23:42 14:22 11:12 - - 09:12 10:00 13:06 13:06 00:28 13:52 11:12 00:00
Maximum _ 6,7 C 98 % 1018,3 hPa 0,2 l/m 20,6 km/h
SW (4 Bft)
- - 2 min 0,051 mm 0,5 UV-I 150 W/m 5,6 C 6,6 C 29,0 km/h
W (5 Bft)
100,00 %
Durchschnitt _ 5,5 C 93 % 1015,6 hPa #1,0 l/m 8,6 km/h (2 Bft) W-SW - #10 min. #0,279 mm 0,4 UV-I 47 W/m 4,4 C 3,6 C 13,8 km/h (3 Bft) 98,61 %